DW6912 Weather Reports


time (UTC)temp
C
wind
direction
speed
KPH
gust
KPH
rain 1hr
cm
rain 24hr
cm
rain mn
cm
humidity
%
barometer
mb
20260509224600 15 158 0.0 3.2 0.00 0.51 0.51 84 1007.4
20260509224402 15 159 1.6 3.2 0.00 0.51 0.51 83 1007.4
20260509224200 15 153 0.0 4.8 0.00 0.51 0.51 83 1007.4
20260509223801 16 153 0.0 4.8 0.00 0.51 0.51 84 1007.5
20260509223701 16 153 0.0 4.8 0.00 0.51 0.51 84 1007.4
20260509223600 16 153 0.0 4.8 0.00 0.51 0.51 83 1007.4
20260509223505 16 153 0.0 4.8 0.00 0.51 0.51 83 1007.4
20260509223401 16 153 1.6 4.8 0.00 0.51 0.51 82 1007.4
20260509223301 16 153 0.0 4.8 0.00 0.51 0.51 82 1007.4
20260509223202 16 153 4.8 4.8 0.00 0.51 0.51 82 1007.4
20260509223100 16 150 1.6 4.8 0.00 0.51 0.51 83 1007.4
20260509222901 16 146 0.0 4.8 0.00 0.51 0.51 83 1007.4
20260509222800 16 146 0.0 4.8 0.00 0.51 0.51 83 1007.4
20260509222702 16 146 1.6 4.8 0.00 0.51 0.51 82 1007.4
20260509222601 16 146 3.2 8.0 0.00 0.51 0.51 82 1007.5
20260509222505 16 146 1.6 8.0 0.00 0.51 0.51 83 1007.5
20260509222401 16 146 3.2 8.0 0.00 0.51 0.51 83 1007.5
20260509222200 16 146 3.2 8.0 0.00 0.51 0.51 83 1007.5
20260509222102 16 146 1.6 8.0 0.00 0.51 0.51 83 1007.5
20260509222005 16 146 1.6 8.0 0.00 0.51 0.51 83 1007.5
20260509221901 16 146 1.6 8.0 0.00 0.51 0.51 83 1007.5
20260509221803 16 146 3.2 8.0 0.00 0.51 0.51 83 1007.5
20260509221701 16 146 3.2 8.0 0.00 0.51 0.51 83 1007.5
20260509221603 16 141 0.0 6.4 0.00 0.51 0.51 84 1007.5
20260509221359 15 139 4.8 6.4 0.00 0.51 0.51 84 1007.5
20260509221201 15 123 3.2 6.4 0.00 0.51 0.51 85 1007.5
20260509221102 15 123 1.6 6.4 0.00 0.51 0.51 85 1007.4
20260509221005 15 123 0.0 6.4 0.00 0.51 0.51 86 1007.4
20260509220901 15 123 0.0 6.4 0.00 0.51 0.51 85 1007.4
20260509220801 15 123 3.2 6.4 0.00 0.51 0.51 85 1007.4
20260509220701 15 125 3.2 4.8 0.00 0.51 0.51 85 1007.4
20260509220602 15 125 1.6 6.4 0.00 0.51 0.51 86 1007.4
20260509220505 15 125 3.2 6.4 0.00 0.51 0.51 85 1007.4
20260509220003 15 125 0.0 6.4 0.00 0.51 0.51 85 1007.4
20260509215800 15 125 3.2 6.4 0.00 0.51 0.51 86 1007.5
20260509215659 15 97 4.8 8.0 0.00 0.51 0.51 86 1007.5
20260509215600 15 158 4.8 8.0 0.00 0.51 0.51 87 1007.5
20260509215505 15 158 3.2 8.0 0.00 0.51 0.51 87 1007.5
20260509215259 15 158 0.0 8.0 0.00 0.51 0.51 87 1007.5
20260509215201 15 158 3.2 8.0 0.00 0.51 0.51 87 1007.5
20260509215059 15 160 1.6 4.8 0.00 0.51 0.51 87 1007.5
20260509215005 15 160 0.0 4.8 0.00 0.51 0.51 86 1007.6
20260509214801 15 160 0.0 4.8 0.00 0.51 0.51 87 1007.6
20260509214701 15 160 0.0 4.8 0.00 0.51 0.51 87 1007.6
20260509214600 15 160 0.0 4.8 0.00 0.51 0.51 87 1007.6
20260509214504 15 160 6.4 6.4 0.00 0.51 0.51 87 1007.6
20260509214358 15 159 3.2 3.2 0.00 0.51 0.51 88 1007.6
20260509214300 15 159 0.0 8.0 0.00 0.51 0.51 87 1007.6
20260509214201 15 160 0.0 8.0 0.00 0.51 0.51 87 1007.6
20260509214059 15 160 0.0 8.0 0.00 0.51 0.51 87 1007.7
20260509214004 15 160 3.2 8.0 0.00 0.51 0.51 87 1007.7
20260509213859 15 160 1.6 8.0 0.00 0.51 0.51 87 1007.7
20260509213759 15 160 0.0 8.0 0.00 0.51 0.51 88 1007.7
20260509213700 15 160 0.0 8.0 0.00 0.51 0.51 87 1007.7
20260509213600 15 160 0.0 8.0 0.00 0.51 0.51 89 1007.7
20260509213504 15 160 1.6 8.0 0.00 0.51 0.51 89 1007.7
20260509213401 15 160 3.2 8.0 0.00 0.51 0.51 89 1007.7
20260509213300 15 160 8.0 8.0 0.00 0.51 0.51 89 1007.8
20260509213200 15 159 3.2 6.4 0.00 0.51 0.51 89 1007.8
20260509213101 15 119 1.6 6.4 0.00 0.51 0.51 89 1007.8
20260509213006 15 92 6.4 6.4 0.00 0.51 0.51 89 1007.8
20260509212901 15 100 0.0 3.2 0.00 0.51 0.51 89 1007.9
20260509212801 15 99 1.6 3.2 0.00 0.51 0.51 89 1007.9
20260509212700 15 99 0.0 3.2 0.00 0.51 0.51 89 1007.9
20260509212600 15 100 0.0 6.4 0.00 0.51 0.51 90 1007.9
20260509212505 15 100 3.2 6.4 0.00 0.51 0.51 90 1007.9
20260509212300 15 100 0.0 6.4 0.00 0.51 0.51 91 1007.9
20260509212200 15 100 0.0 6.4 0.00 0.51 0.51 91 1007.8
20260509212101 15 100 1.6 6.4 0.00 0.51 0.51 91 1007.8
20260509212006 15 99 1.6 6.4 0.00 0.51 0.51 91 1007.9
20260509211800 15 99 0.0 6.4 0.00 0.51 0.51 91 1007.9
20260509211700 15 99 1.6 6.4 0.00 0.51 0.51 91 1007.9
20260509211600 15 100 4.8 6.4 0.00 0.51 0.51 91 1007.9
20260509211506 15 101 0.0 6.4 0.00 0.51 0.51 91 1007.9
20260509211359 15 101 3.2 6.4 0.00 0.51 0.51 92 1007.9
20260509211300 15 101 1.6 8.0 0.00 0.51 0.51 92 1008.0
20260509211159 15 97 4.8 8.0 0.00 0.51 0.51 93 1007.9
20260509211100 15 138 4.8 8.0 0.00 0.51 0.51 93 1008.0
20260509211005 15 88 0.0 8.0 0.00 0.51 0.51 93 1008.0
20260509210901 15 88 0.0 8.0 0.00 0.51 0.51 93 1008.0
20260509210801 15 88 0.0 8.0 0.00 0.51 0.51 93 1008.0
20260509210700 15 88 0.0 8.0 0.00 0.51 0.51 93 1008.0
20260509210504 15 81 1.6 8.0 0.00 0.51 0.51 93 1008.0
20260509210359 15 63 4.8 11.3 0.00 0.51 0.51 94 1008.0
20260509210259 15 59 1.6 11.3 0.00 0.51 0.51 94 1008.0
20260509210159 15 65 1.6 11.3 0.00 0.51 0.51 94 1008.1
20260509210059 15 71 1.6 11.3 0.00 0.51 0.51 94 1008.0
20260509210004 15 127 4.8 11.3 0.00 0.51 0.51 94 1008.1
20260509205902 15 144 4.8 11.3 0.00 0.51 0.51 94 1008.0
20260509205801 15 130 1.6 11.3 0.00 0.51 0.51 95 1008.0
20260509205701 15 139 4.8 11.3 0.00 0.51 0.51 95 1008.0
20260509205600 15 148 4.8 11.3 0.00 0.51 0.51 95 1008.0
20260509205401 15 192 0.0 8.0 0.00 0.51 0.51 95 1008.0
20260509205301 15 192 1.6 8.0 0.00 0.51 0.51 95 1008.1
20260509205201 15 69 1.6 8.0 0.00 0.51 0.51 95 1008.1
20260509204902 14 63 3.2 6.4 0.00 0.51 0.51 95 1008.1
20260509204801 14 126 1.6 8.0 0.00 0.51 0.51 95 1008.2
20260509204702 14 126 4.8 8.0 0.00 0.51 0.51 95 1008.2
20260509204601 14 149 3.2 8.0 0.00 0.51 0.51 95 1008.2
20260509204505 14 150 4.8 6.4 0.00 0.51 0.51 95 1008.3
20260509204401 14 80 1.6 4.8 0.00 0.51 0.51 95 1008.2
20260509204302 14 80 1.6 3.2 0.00 0.51 0.51 95 1008.3
20260509204201 14 80 3.2 3.2 0.00 0.51 0.51 95 1008.3
20260509204101 14 80 0.0 3.2 0.00 0.51 0.51 95 1008.3
20260509204005 14 80 1.6 3.2 0.00 0.51 0.51 95 1008.3
20260509203901 14 80 1.6 3.2 0.00 0.51 0.51 95 1008.3
20260509203801 14 80 0.0 3.2 0.00 0.51 0.51 95 1008.3
20260509203601 13 80 1.6 3.2 0.00 0.51 0.51 95 1008.4
20260509203505 13 80 1.6 3.2 0.00 0.51 0.51 95 1008.4
20260509203401 13 80 0.0 3.2 0.00 0.51 0.51 95 1008.4
20260509203302 13 80 0.0 3.2 0.00 0.51 0.51 95 1008.4
20260509203101 13 80 0.0 3.2 0.00 0.51 0.51 95 1008.5
20260509203006 13 80 1.6 3.2 0.00 0.51 0.51 95 1008.5
20260509202902 13 80 1.6 4.8 0.00 0.51 0.51 95 1008.5
20260509202802 13 80 0.0 6.4 0.00 0.51 0.51 95 1008.5
20260509202701 13 80 1.6 6.4 0.00 0.51 0.51 95 1008.5
20260509202600 13 80 1.6 6.4 0.00 0.51 0.51 95 1008.5
20260509202507 13 80 0.0 6.4 0.00 0.51 0.51 95 1008.6
20260509202400 13 80 0.0 6.4 0.00 0.51 0.51 95 1008.5
20260509202100 13 80 0.0 6.4 0.00 0.51 0.51 95 1008.5
20260509202004 13 80 1.6 6.4 0.00 0.51 0.51 95 1008.5
20260509201900 13 80 3.2 6.4 0.00 0.51 0.51 95 1008.4
20260509201800 13 80 3.2 4.8 0.00 0.51 0.51 95 1008.4
20260509201701 13 80 1.6 4.8 0.00 0.51 0.51 95 1008.4
20260509201505 13 80 3.2 3.2 0.00 0.51 0.51 95 1008.4
20260509201400 13 80 1.6 3.2 0.00 0.51 0.51 95 1008.3
20260509201301 13 80 1.6 3.2 0.00 0.51 0.51 95 1008.3
20260509201101 13 80 0.0 3.2 0.00 0.51 0.51 95 1008.3
20260509200901 13 80 0.0 3.2 0.00 0.51 0.51 95 1008.3
20260509200801 13 80 1.6 3.2 0.00 0.51 0.51 95 1008.2
20260509200700 13 80 1.6 3.2 0.00 0.51 0.51 95 1008.2
20260509200601 13 80 1.6 1.6 0.00 0.51 0.51 95 1008.2
20260509200401 13 80 0.0 1.6 0.00 0.51 0.51 95 1008.2
20260509200303 13 80 0.0 3.2 0.00 0.51 0.51 95 1008.2
20260509200201 13 80 0.0 3.2 0.00 0.51 0.51 95 1008.1
20260509200101 13 80 0.0 3.2 0.00 0.51 0.51 95 1008.1
20260509200006 13 80 0.0 3.2 0.00 0.51 0.51 95 1008.1
20260509195901 13 80 0.0 3.2 0.00 0.51 0.51 95 1008.1
20260509195801 13 80 0.0 4.8 0.00 0.51 0.51 95 1008.1
20260509195700 13 80 0.0 4.8 0.00 0.51 0.51 95 1008.1
20260509195603 13 80 0.0 4.8 0.00 0.51 0.51 95 1008.1
20260509195504 13 80 1.6 4.8 0.00 0.51 0.51 95 1008.1
20260509195402 13 80 1.6 4.8 0.00 0.51 0.51 95 1008.2
20260509195201 13 80 1.6 4.8 0.00 0.51 0.51 95 1008.3
20260509194902 13 80 1.6 4.8 0.00 0.51 0.51 95 1008.4
20260509194702 13 80 0.0 4.8 0.00 0.51 0.51 95 1008.5
20260509194600 13 80 1.6 4.8 0.00 0.51 0.51 95 1008.6
20260509194505 13 80 0.0 4.8 0.00 0.51 0.51 95 1008.6
20260509194401 13 80 3.2 4.8 0.00 0.51 0.51 95 1008.6
20260509194300 13 80 1.6 4.8 0.00 0.51 0.51 94 1008.6
20260509194202 13 80 3.2 4.8 0.00 0.51 0.51 94 1008.6
20260509194102 13 80 1.6 4.8 0.00 0.51 0.51 94 1008.5
20260509194005 13 80 4.8 4.8 0.00 0.51 0.51 94 1008.6
20260509193902 13 80 3.2 4.8 0.00 0.51 0.51 94 1008.6
20260509193801 13 80 3.2 4.8 0.00 0.51 0.51 94 1008.6
20260509193702 13 80 3.2 4.8 0.00 0.51 0.51 94 1008.6
20260509193600 13 80 0.0 3.2 0.00 0.51 0.51 94 1008.7
20260509193504 13 80 3.2 3.2 0.00 0.51 0.51 94 1008.6
20260509193402 13 80 0.0 3.2 0.00 0.51 0.51 94 1008.6
20260509193301 13 80 0.0 4.8 0.00 0.51 0.51 94 1008.6
20260509193006 13 80 1.6 8.0 0.00 0.51 0.51 93 1008.7
20260509192902 13 80 0.0 8.0 0.00 0.51 0.51 93 1008.7
20260509192801 13 80 3.2 8.0 0.00 0.51 0.51 93 1008.8
20260509192602 13 80 1.6 8.0 0.00 0.51 0.51 93 1008.9
20260509192401 13 80 4.8 8.0 0.00 0.51 0.51 93 1008.9
20260509192301 13 80 4.8 8.0 0.00 0.51 0.51 93 1008.9
20260509192201 13 76 3.2 8.0 0.00 0.51 0.51 93 1008.9
20260509192104 14 84 4.8 6.4 0.00 0.51 0.51 93 1008.9
20260509192005 14 85 1.6 6.4 0.00 0.51 0.51 93 1008.9
20260509191802 14 85 0.0 6.4 0.00 0.51 0.51 94 1008.9
20260509191701 14 85 0.0 6.4 0.00 0.51 0.51 94 1009.0
20260509191602 14 85 0.0 6.4 0.00 0.51 0.51 94 1009.0
20260509191507 14 85 3.2 6.4 0.00 0.51 0.51 94 1009.0
20260509191401 14 92 1.6 6.4 0.00 0.51 0.51 94 1009.0
20260509191302 14 92 4.8 6.4 0.00 0.51 0.51 94 1009.1
20260509191200 14 103 1.6 4.8 0.00 0.51 0.51 94 1009.1
20260509191004 14 103 3.2 4.8 0.00 0.51 0.51 95 1009.0
20260509190901 14 103 1.6 4.8 0.00 0.51 0.51 95 1009.0
20260509190802 14 142 1.6 4.8 0.00 0.51 0.51 95 1009.0
20260509190701 14 142 0.0 4.8 0.00 0.51 0.51 95 1009.1
20260509190401 13 144 0.0 4.8 0.00 0.51 0.51 94 1009.2
20260509190302 13 144 1.6 4.8 0.00 0.51 0.51 94 1009.2
20260509190202 13 144 0.0 4.8 0.00 0.51 0.51 95 1009.2
20260509190006 14 144 1.6 4.8 0.00 0.51 0.51 95 1009.2
20260509185900 14 144 1.6 3.2 0.00 0.51 0.51 95 1009.3
20260509185700 14 144 1.6 3.2 0.00 0.51 0.51 95 1009.4
20260509185559 14 144 0.0 0.0 0.00 0.51 0.51 95 1009.5
20260509185505 14 144 0.0 0.0 0.00 0.51 0.51 95 1009.5
20260509185401 13 144 0.0 1.6 0.00 0.51 0.51 95 1009.5
20260509185300 13 144 0.0 1.6 0.00 0.51 0.51 95 1009.6
20260509185201 13 144 0.0 1.6 0.00 0.51 0.51 95 1009.5
20260509185100 13 144 0.0 1.6 0.00 0.51 0.51 95 1009.5
20260509185005 13 144 0.0 1.6 0.00 0.51 0.51 95 1009.5
20260509184859 13 144 0.0 1.6 0.00 0.51 0.51 95 1009.5
20260509184802 13 145 0.0 3.2 0.00 0.51 0.51 95 1009.5
20260509184700 13 144 0.0 3.2 0.00 0.51 0.51 95 1009.6
20260509184601 13 144 0.0 3.2 0.00 0.51 0.51 95 1009.6
20260509184501 13 144 0.0 3.2 0.00 0.51 0.51 95 1009.7
20260509184400 13 144 0.0 3.2 0.00 0.51 0.51 95 1009.7
20260509184300 13 144 0.0 3.2 0.00 0.51 0.51 95 1009.6
20260509184159 13 144 0.0 3.2 0.00 0.51 0.51 95 1009.6
20260509184100 13 144 0.0 3.2 0.00 0.51 0.51 95 1009.6
20260509184002 13 144 0.0 3.2 0.00 0.51 0.51 95 1009.6
20260509183659 13 144 0.0 3.2 0.00 0.51 0.51 95 1009.5
20260509183603 13 144 1.6 3.2 0.00 0.51 0.51 95 1009.5
20260509183504 13 144 0.0 3.2 0.00 0.51 0.51 95 1009.5
20260509183359 13 144 0.0 3.2 0.00 0.51 0.51 95 1009.4
20260509183301 13 144 0.0 3.2 0.00 0.51 0.51 95 1009.4
20260509183159 13 144 0.0 3.2 0.00 0.51 0.51 95 1009.4
20260509183101 13 144 0.0 3.2 0.00 0.51 0.51 95 1009.4
20260509183006 13 144 1.6 4.8 0.00 0.51 0.51 95 1009.3
20260509182859 13 144 0.0 4.8 0.00 0.51 0.51 95 1009.3
20260509182800 13 144 0.0 4.8 0.00 0.51 0.51 95 1009.3
20260509182659 13 144 0.0 4.8 0.00 0.51 0.51 95 1009.4
20260509182503 13 144 0.0 4.8 0.00 0.51 0.51 95 1009.3
20260509182359 13 144 3.2 4.8 0.00 0.51 0.51 95 1009.3
20260509182300 13 144 0.0 4.8 0.00 0.51 0.51 95 1009.3
20260509182159 13 144 0.0 4.8 0.00 0.51 0.51 95 1009.3
20260509182100 13 144 0.0 4.8 0.00 0.51 0.51 95 1009.3
20260509182006 13 144 0.0 3.2 0.00 0.51 0.51 95 1009.3
20260509181859 13 144 1.6 3.2 0.00 0.51 0.51 95 1009.3
20260509181800 13 144 0.0 3.2 0.00 0.51 0.51 95 1009.2
20260509181701 13 144 1.6 3.2 0.00 0.51 0.51 95 1009.2
20260509181601 13 144 0.0 3.2 0.00 0.51 0.51 95 1009.2
20260509181505 13 144 0.0 3.2 0.00 0.51 0.51 95 1009.2
20260509181400 13 144 0.0 3.2 0.00 0.51 0.51 95 1009.2
20260509181259 13 144 1.6 3.2 0.00 0.51 0.51 95 1009.2
20260509181159 13 144 3.2 3.2 0.00 0.51 0.51 95 1009.2
20260509181101 13 144 1.6 3.2 0.00 0.51 0.51 95 1009.2
20260509181004 13 144 0.0 3.2 0.00 0.51 0.51 95 1009.2
20260509180901 13 144 0.0 3.2 0.00 0.51 0.51 95 1009.1
20260509180700 13 144 0.0 3.2 0.00 0.51 0.51 95 1009.2
20260509180504 13 144 0.0 1.6 0.03 0.51 0.51 95 1009.3
20260509180400 13 144 0.0 1.6 0.03 0.51 0.51 95 1009.3
20260509180300 13 144 0.0 3.2 0.03 0.51 0.51 95 1009.3
20260509180100 13 144 0.0 3.2 0.03 0.51 0.51 95 1009.4
20260509175902 13 144 0.0 3.2 0.03 0.51 0.51 95 1009.5
20260509175800 12 144 0.0 3.2 0.03 0.51 0.51 95 1009.5
20260509175702 12 144 0.0 3.2 0.03 0.51 0.51 95 1009.5
20260509175601 12 144 0.0 3.2 0.03 0.51 0.51 95 1009.5
20260509175507 12 144 0.0 3.2 0.03 0.51 0.51 95 1009.5
20260509175403 12 144 0.0 4.8 0.03 0.51 0.51 95 1009.6
20260509175201 12 144 0.0 4.8 0.03 0.51 0.51 95 1009.6
20260509175101 12 144 0.0 4.8 0.03 0.51 0.51 95 1009.6
20260509174902 12 144 1.6 4.8 0.03 0.51 0.51 95 1009.7
20260509174801 12 144 0.0 4.8 0.03 0.51 0.51 95 1009.7
20260509174601 12 144 1.6 4.8 0.03 0.51 0.51 95 1009.7
20260509174506 12 144 3.2 4.8 0.03 0.51 0.51 95 1009.7
20260509174401 12 144 3.2 4.8 0.03 0.51 0.51 95 1009.7
20260509174201 12 145 0.0 0.0 0.03 0.51 0.51 95 1009.7
20260509174101 12 145 0.0 0.0 0.03 0.51 0.51 95 1009.8
20260509173900 12 145 0.0 0.0 0.03 0.51 0.51 94 1009.8
20260509173801 12 145 0.0 0.0 0.03 0.51 0.51 94 1009.8
20260509173700 12 145 0.0 0.0 0.03 0.51 0.51 94 1009.8
20260509173505 12 145 0.0 1.6 0.03 0.51 0.51 94 1009.9
20260509173401 12 145 0.0 1.6 0.03 0.51 0.51 94 1009.9
20260509173301 12 145 0.0 1.6 0.03 0.51 0.51 94 1009.9
20260509173201 12 145 0.0 1.6 0.03 0.51 0.51 94 1009.9
20260509173102 12 145 0.0 1.6 0.03 0.51 0.51 94 1010.0
20260509173004 12 145 0.0 3.2 0.03 0.51 0.51 94 1009.9
20260509172801 12 145 0.0 3.2 0.05 0.51 0.51 94 1009.9
20260509172701 12 145 0.0 3.2 0.05 0.51 0.51 94 1010.0
20260509172601 12 145 0.0 3.2 0.05 0.51 0.51 94 1010.0
20260509172505 12 145 0.0 3.2 0.05 0.51 0.51 94 1010.0
20260509172201 12 145 0.0 4.8 0.05 0.51 0.51 94 1010.1
20260509172006 12 145 1.6 4.8 0.05 0.51 0.51 94 1010.1
20260509171903 12 145 0.0 4.8 0.05 0.51 0.51 94 1010.1
20260509171803 12 145 0.0 4.8 0.05 0.51 0.51 94 1010.1
20260509171701 12 145 0.0 4.8 0.05 0.51 0.51 94 1010.2
20260509171559 12 145 0.0 4.8 0.05 0.51 0.51 94 1010.1
20260509171506 12 145 0.0 4.8 0.05 0.51 0.51 94 1010.1
20260509171401 12 145 0.0 4.8 0.05 0.51 0.51 94 1010.2
20260509171302 12 145 3.2 3.2 0.05 0.51 0.51 94 1010.2
20260509171200 12 145 0.0 3.2 0.08 0.51 0.51 94 1010.1
20260509171100 12 145 0.0 3.2 0.08 0.51 0.51 94 1010.1
20260509170900 12 145 0.0 3.2 0.08 0.51 0.51 94 1010.2
20260509170801 12 145 0.0 3.2 0.08 0.51 0.51 94 1010.1
20260509170701 12 145 0.0 3.2 0.08 0.51 0.51 94 1010.2
20260509170601 12 145 3.2 3.2 0.05 0.48 0.48 94 1010.3
20260509170402 12 145 0.0 4.8 0.05 0.48 0.48 94 1010.3
20260509170300 12 145 0.0 4.8 0.08 0.48 0.48 94 1010.2
20260509170201 12 145 1.6 4.8 0.08 0.48 0.48 94 1010.1
20260509170005 12 145 0.0 4.8 0.08 0.48 0.48 94 1010.2
20260509165901 12 145 0.0 4.8 0.08 0.48 0.48 94 1010.2
20260509165800 12 145 0.0 4.8 0.08 0.48 0.48 94 1010.1
20260509165700 12 145 0.0 4.8 0.08 0.48 0.48 94 1010.1
20260509165600 12 145 0.0 4.8 0.08 0.48 0.48 94 1010.1
20260509165505 12 145 1.6 4.8 0.08 0.48 0.48 94 1010.0
20260509165359 12 145 1.6 4.8 0.08 0.48 0.48 94 1010.0
20260509165300 12 145 1.6 3.2 0.10 0.48 0.48 94 1010.0
20260509165201 12 145 0.0 3.2 0.10 0.48 0.48 94 1010.0
20260509165059 12 145 0.0 3.2 0.10 0.48 0.48 93 1010.0
20260509165005 12 145 3.2 3.2 0.10 0.48 0.48 93 1010.1
20260509164859 12 145 1.6 3.2 0.10 0.48 0.48 93 1010.1
20260509164800 12 145 0.0 3.2 0.10 0.48 0.48 94 1010.1
20260509164701 12 145 0.0 3.2 0.13 0.48 0.48 94 1010.0
20260509164600 12 145 0.0 4.8 0.13 0.48 0.48 94 1010.0
20260509164505 12 145 3.2 4.8 0.13 0.48 0.48 94 1010.0
20260509164359 12 145 0.0 4.8 0.13 0.48 0.48 94 1009.9
20260509164259 12 145 1.6 4.8 0.13 0.48 0.48 94 1009.9
20260509164200 12 145 0.0 4.8 0.13 0.48 0.48 94 1009.9
20260509164100 12 145 1.6 4.8 0.15 0.48 0.48 94 1009.8
20260509164005 12 145 1.6 4.8 0.15 0.48 0.48 94 1009.8
20260509163900 12 145 0.0 4.8 0.18 0.48 0.48 94 1009.8
20260509163658 12 145 1.6 4.8 0.18 0.48 0.48 94 1009.7
20260509163601 11 145 1.6 4.8 0.18 0.48 0.48 94 1009.7
20260509163505 11 145 1.6 4.8 0.18 0.48 0.48 94 1009.6
20260509163401 11 145 3.2 4.8 0.20 0.48 0.48 94 1009.6
20260509163300 11 145 0.0 4.8 0.20 0.48 0.48 94 1009.6
20260509163159 11 145 1.6 4.8 0.23 0.48 0.48 94 1009.6
20260509163100 11 145 1.6 4.8 0.23 0.48 0.48 94 1009.6
20260509163004 11 145 3.2 4.8 0.23 0.48 0.48 94 1009.5
20260509162859 11 145 3.2 4.8 0.20 0.46 0.46 94 1009.4
20260509162700 11 145 0.0 4.8 0.23 0.46 0.46 94 1009.3
20260509162601 11 145 1.6 4.8 0.23 0.46 0.46 94 1009.3
20260509162504 11 145 3.2 4.8 0.25 0.46 0.46 94 1009.3
20260509162301 11 146 1.6 4.8 0.28 0.46 0.46 94 1009.3
20260509162200 11 146 1.6 6.4 0.28 0.46 0.46 95 1009.4
20260509162101 11 146 0.0 8.0 0.30 0.46 0.46 95 1009.4
20260509162004 11 146 3.2 8.0 0.30 0.46 0.46 95 1009.4
20260509161900 11 146 1.6 8.0 0.30 0.46 0.46 95 1009.4
20260509161801 11 146 3.2 8.0 0.30 0.46 0.46 95 1009.4
20260509161700 11 146 1.6 8.0 0.33 0.46 0.46 95 1009.3
20260509161505 11 65 1.6 8.0 0.36 0.46 0.46 95 1009.2
20260509161400 11 65 1.6 8.0 0.36 0.46 0.46 95 1009.2
20260509161200 11 59 6.4 8.0 0.33 0.43 0.43 95 1009.4
20260509161100 11 142 1.6 8.0 0.33 0.43 0.43 94 1009.4
20260509161002 11 103 1.6 8.0 0.33 0.43 0.43 94 1009.4
20260509160859 11 70 6.4 8.0 0.33 0.43 0.43 94 1009.5
20260509160759 11 83 3.2 8.0 0.36 0.43 0.43 94 1009.5
20260509160659 11 97 3.2 8.0 0.36 0.43 0.43 94 1009.5
20260509160600 11 100 3.2 8.0 0.36 0.43 0.43 95 1009.5
20260509160503 11 58 6.4 8.0 0.36 0.43 0.43 95 1009.6
20260509160401 11 71 4.8 8.0 0.33 0.41 0.41 95 1009.7
20260509160201 11 93 1.6 6.4 0.33 0.41 0.41 95 1009.7
20260509160007 11 93 1.6 6.4 0.36 0.41 0.41 95 1009.7
20260509155859 11 94 6.4 6.4 0.36 0.41 0.41 95 1009.7
20260509155759 11 94 1.6 6.4 0.36 0.41 0.41 95 1009.9
20260509155601 11 94 3.2 6.4 0.36 0.41 0.41 95 1009.9
20260509155501 11 94 1.6 6.4 0.36 0.41 0.41 95 1010.0
20260509155400 11 94 4.8 6.4 0.36 0.41 0.41 95 1010.1
20260509155300 11 94 1.6 6.4 0.33 0.38 0.38 95 1010.0
20260509155159 11 94 4.8 6.4 0.33 0.38 0.38 95 1010.1
20260509155100 11 95 0.0 3.2 0.33 0.38 0.38 95 1010.2
20260509155004 11 95 0.0 3.2 0.33 0.38 0.38 95 1010.2
20260509154901 11 94 0.0 3.2 0.33 0.38 0.38 95 1010.3
20260509154506 11 95 0.0 0.0 0.30 0.36 0.36 95 1010.3
20260509154259 11 95 0.0 0.0 0.30 0.36 0.36 95 1010.5
20260509154100 11 95 0.0 0.0 0.28 0.33 0.33 95 1010.6
20260509154005 11 95 0.0 0.0 0.28 0.33 0.33 95 1010.6
20260509153901 11 95 0.0 0.0 0.28 0.30 0.30 95 1010.7
20260509153801 11 95 0.0 1.6 0.28 0.30 0.30 95 1010.7
20260509153700 11 95 0.0 1.6 0.28 0.30 0.30 95 1010.7
20260509153559 11 95 0.0 1.6 0.28 0.30 0.30 95 1010.7
20260509153505 11 95 0.0 3.2 0.28 0.30 0.30 95 1010.6
20260509153359 11 95 0.0 3.2 0.25 0.28 0.28 95 1010.7
20260509153300 11 95 0.0 3.2 0.25 0.28 0.28 95 1010.8
20260509153200 11 95 0.0 4.8 0.23 0.25 0.25 95 1010.7
20260509153101 11 94 0.0 4.8 0.23 0.25 0.25 95 1010.9
20260509152900 11 95 0.0 4.8 0.25 0.25 0.25 95 1010.9
20260509152801 11 95 0.0 4.8 0.23 0.23 0.23 95 1010.9
20260509152701 11 95 1.6 4.8 0.23 0.23 0.23 94 1010.9
20260509152600 11 95 0.0 4.8 0.23 0.23 0.23 94 1010.9
20260509152505 11 95 0.0 4.8 0.20 0.20 0.20 94 1011.0
20260509152401 11 95 0.0 4.8 0.20 0.20 0.20 95 1011.0
20260509152305 11 95 0.0 4.8 0.18 0.18 0.18 95 1011.0
20260509152100 11 95 0.0 0.0 0.15 0.15 0.15 94 1011.0
20260509152005 11 95 0.0 0.0 0.15 0.15 0.15 94 1011.0
20260509151859 12 95 0.0 0.0 0.15 0.15 0.15 94 1011.0
20260509151802 12 95 0.0 0.0 0.15 0.15 0.15 94 1011.0
20260509151701 12 95 0.0 3.2 0.13 0.13 0.13 94 1011.0
20260509151601 12 95 0.0 3.2 0.13 0.13 0.13 95 1011.0
20260509151504 12 95 0.0 3.2 0.10 0.10 0.10 95 1011.0
20260509151400 12 94 0.0 3.2 0.10 0.10 0.10 95 1011.0
20260509151200 12 94 0.0 3.2 0.10 0.10 0.10 94 1010.9
20260509151003 12 95 0.0 3.2 0.10 0.10 0.10 94 1010.8
20260509150902 12 95 0.0 3.2 0.10 0.10 0.10 94 1010.8
20260509150801 12 95 0.0 3.2 0.08 0.08 0.08 94 1010.7
20260509150700 12 95 1.6 1.6 0.08 0.08 0.08 94 1010.8
20260509150359 12 95 0.0 0.0 0.08 0.08 0.08 94 1010.6
20260509150300 12 95 0.0 0.0 0.08 0.08 0.08 94 1010.6
20260509150100 12 95 0.0 0.0 0.08 0.08 0.08 94 1010.5
20260509150006 12 94 0.0 0.0 0.05 0.05 0.05 93 1010.5
20260509145900 12 94 0.0 0.0 0.05 0.05 0.05 93 1010.5
20260509145800 12 95 0.0 0.0 0.05 0.05 0.05 93 1010.5
20260509145700 12 95 0.0 0.0 0.05 0.05 0.05 93 1010.5
20260509145600 12 94 0.0 1.6 0.05 0.05 0.05 93 1010.5
20260509145505 12 95 0.0 1.6 0.05 0.05 0.05 93 1010.5
20260509145400 12 95 0.0 1.6 0.05 0.05 0.05 93 1010.5
20260509145300 12 95 0.0 1.6 0.05 0.05 0.05 93 1010.5
20260509145159 12 94 0.0 1.6 0.05 0.05 0.05 93 1010.6
20260509145100 12 95 0.0 1.6 0.05 0.05 0.05 93 1010.5
20260509145006 12 95 0.0 1.6 0.05 0.05 0.05 93 1010.5
20260509144800 12 95 0.0 3.2 0.05 0.05 0.05 92 1010.5
20260509144659 12 95 0.0 3.2 0.05 0.05 0.05 92 1010.4
20260509144559 12 94 0.0 3.2 0.05 0.05 0.05 92 1010.4
20260509144505 12 95 0.0 3.2 0.05 0.05 0.05 92 1010.4
20260509144400 12 94 0.0 3.2 0.05 0.05 0.05 92 1010.4
20260509144300 12 94 0.0 3.2 0.05 0.05 0.05 92 1010.4
20260509144200 12 95 0.0 3.2 0.05 0.05 0.05 92 1010.4
20260509144100 12 95 0.0 3.2 0.05 0.05 0.05 91 1010.4
20260509143859 12 95 3.2 3.2 0.03 0.03 0.03 91 1010.4
20260509143800 12 94 0.0 3.2 0.03 0.03 0.03 91 1010.4
20260509143700 12 95 0.0 3.2 0.03 0.03 0.03 91 1010.5
20260509143600 12 95 0.0 3.2 0.03 0.03 0.03 91 1010.4
20260509143401 12 95 0.0 3.2 0.03 0.03 0.03 90 1010.4
20260509143300 12 95 0.0 3.2 0.03 0.03 0.03 90 1010.4
20260509143201 12 95 0.0 3.2 0.03 0.03 0.03 90 1010.4
20260509143100 12 95 0.0 3.2 0.03 0.03 0.03 90 1010.4
20260509143006 12 95 0.0 3.2 0.03 0.03 0.03 90 1010.4
20260509142900 12 95 0.0 3.2 0.00 0.00 0.00 90 1010.4
20260509142759 12 95 0.0 3.2 0.00 0.00 0.00 90 1010.3
20260509142701 12 95 0.0 3.2 0.00 0.00 0.00 90 1010.3
20260509142559 12 95 0.0 3.2 0.00 0.00 0.00 89 1010.3
20260509142500 12 95 0.0 3.2 0.00 0.00 0.00 89 1010.3
20260509142402 12 95 0.0 3.2 0.00 0.00 0.00 89 1010.3
20260509142300 12 94 0.0 3.2 0.00 0.00 0.00 89 1010.3
20260509142200 12 95 0.0 3.2 0.00 0.00 0.00 89 1010.4
20260509142100 12 95 0.0 3.2 0.00 0.00 0.00 89 1010.4
20260509141901 12 95 0.0 3.2 0.00 0.00 0.00 89 1010.3
20260509141759 12 95 0.0 3.2 0.00 0.00 0.00 89 1010.3
20260509141700 12 95 0.0 3.2 0.00 0.00 0.00 89 1010.3
20260509141600 12 95 1.6 3.2 0.00 0.00 0.00 89 1010.3
20260509141505 12 95 1.6 3.2 0.00 0.00 0.00 89 1010.3
20260509141359 12 95 0.0 3.2 0.00 0.00 0.00 88 1010.2
20260509141300 12 95 0.0 3.2 0.00 0.00 0.00 88 1010.1
20260509141201 12 95 0.0 3.2 0.00 0.00 0.00 89 1010.1
20260509141100 12 94 0.0 3.2 0.00 0.00 0.00 89 1010.1
20260509140801 12 95 1.6 4.8 0.00 0.00 0.00 89 1010.2
20260509140700 12 94 0.0 4.8 0.00 0.00 0.00 89 1010.1
20260509140600 12 95 0.0 4.8 0.00 0.00 0.00 89 1010.1
20260509140501 12 94 0.0 4.8 0.00 0.00 0.00 89 1010.2
20260509140400 12 94 0.0 4.8 0.00 0.00 0.00 89 1010.1
20260509140259 12 95 0.0 4.8 0.00 0.00 0.00 89 1010.1
20260509140159 12 94 0.0 4.8 0.00 0.00 0.00 89 1010.2
20260509140059 12 94 4.8 4.8 0.00 0.00 0.00 89 1010.1
20260509140001 12 95 1.6 4.8 0.00 0.00 0.00 89 1010.2
20260509135859 12 95 0.0 4.8 0.00 0.00 0.00 89 1010.2
20260509135800 12 95 0.0 4.8 0.00 0.00 0.00 89 1010.1
20260509135700 12 95 0.0 4.8 0.00 0.00 0.00 89 1010.1
20260509135600 12 95 3.2 3.2 0.00 0.00 0.00 89 1010.1
20260509135401 12 95 1.6 3.2 0.00 0.00 0.00 89 1010.1
20260509135259 12 94 0.0 3.2 0.00 0.00 0.00 89 1010.1
20260509135201 12 95 0.0 4.8 0.00 0.00 0.00 89 1010.1
20260509135059 12 94 0.0 4.8 0.00 0.00 0.00 89 1010.1
20260509135005 12 94 0.0 4.8 0.00 0.00 0.00 90 1010.0
20260509134801 12 94 0.0 6.4 0.00 0.00 0.00 90 1010.0
20260509134659 12 94 0.0 6.4 0.00 0.00 0.00 90 1010.1
20260509134559 12 94 0.0 6.4 0.00 0.00 0.00 90 1010.1
20260509134505 12 94 0.0 6.4 0.00 0.00 0.00 90 1010.1
20260509134400 12 94 1.6 6.4 0.00 0.00 0.00 90 1010.1
20260509134300 12 94 1.6 6.4 0.00 0.00 0.00 91 1010.2
20260509134159 12 173 1.6 6.4 0.00 0.00 0.00 91 1010.1
20260509134100 12 186 3.2 6.4 0.00 0.00 0.00 91 1010.1
20260509134004 12 187 1.6 6.4 0.00 0.00 0.00 91 1010.1
20260509133901 12 187 3.2 3.2 0.00 0.00 0.00 91 1010.1
20260509133801 12 187 0.0 3.2 0.00 0.00 0.00 91 1010.0
20260509133601 11 187 0.0 3.2 0.00 0.00 0.00 92 1010.0
20260509133505 11 187 0.0 3.2 0.00 0.00 0.00 92 1010.1
20260509133259 11 187 0.0 3.2 0.00 0.00 0.00 92 1010.0
20260509133200 11 187 0.0 3.2 0.00 0.00 0.00 92 1010.1
20260509133100 11 187 1.6 3.2 0.00 0.00 0.00 93 1010.0
20260509133002 11 187 1.6 6.4 0.00 0.00 0.00 93 1010.0
20260509132859 11 187 1.6 6.4 0.00 0.00 0.00 93 1010.0
20260509132801 11 187 1.6 6.4 0.00 0.00 0.00 93 1010.0
20260509132559 11 187 1.6 6.4 0.00 0.00 0.00 93 1010.0
20260509132505 11 187 0.0 6.4 0.00 0.00 0.00 93 1009.9
20260509132400 11 187 0.0 6.4 0.00 0.00 0.00 93 1009.9
20260509132300 11 203 3.2 6.4 0.00 0.00 0.00 94 1009.9
20260509132200 11 217 1.6 6.4 0.00 0.00 0.00 94 1009.9
20260509132059 11 220 1.6 6.4 0.00 0.00 0.00 94 1009.9
20260509132004 11 103 0.0 3.2 0.00 0.00 0.00 94 1010.0
20260509131859 11 103 0.0 3.2 0.00 0.00 0.00 94 1010.0
20260509131701 11 103 0.0 3.2 0.00 0.00 0.00 94 1009.9
20260509131559 11 103 0.0 3.2 0.00 0.00 0.00 94 1009.9
20260509131505 11 103 0.0 3.2 0.00 0.00 0.00 94 1009.9
20260509131400 11 103 0.0 3.2 0.00 0.00 0.00 94 1009.8
20260509131300 11 103 0.0 3.2 0.00 0.00 0.00 94 1009.8
20260509131159 11 103 1.6 3.2 0.00 0.00 0.00 94 1009.7
20260509131059 11 103 1.6 3.2 0.00 0.00 0.00 93 1009.6
20260509130900 11 103 3.2 3.2 0.00 0.00 0.00 94 1009.6
20260509130759 11 103 1.6 3.2 0.00 0.00 0.00 94 1009.6
20260509130659 11 103 1.6 3.2 0.00 0.00 0.00 93 1009.5
20260509130504 11 103 1.6 3.2 0.00 0.00 0.00 93 1009.3
20260509130359 11 103 0.0 3.2 0.00 0.00 0.00 93 1009.3
20260509130301 11 103 0.0 3.2 0.00 0.00 0.00 93 1009.2
20260509130159 11 103 0.0 3.2 0.00 0.00 0.00 93 1009.2
20260509130100 11 103 0.0 3.2 0.00 0.00 0.00 93 1009.3
20260509130000 11 103 0.0 3.2 0.00 0.00 0.00 93 1009.3
20260509125901 11 103 0.0 3.2 0.00 0.00 0.00 93 1009.2
20260509125759 11 103 1.6 3.2 0.00 0.00 0.00 93 1009.2
20260509125701 11 103 1.6 3.2 0.00 0.00 0.00 93 1009.3
20260509125600 11 103 0.0 3.2 0.00 0.00 0.00 93 1009.2
20260509125506 11 103 0.0 4.8 0.00 0.00 0.00 93 1009.3
20260509125259 11 103 1.6 6.4 0.00 0.00 0.00 92 1009.3
20260509125100 11 103 0.0 6.4 0.00 0.00 0.00 92 1009.3
20260509125000 11 103 0.0 6.4 0.00 0.00 0.00 92 1009.3
20260509124901 11 103 1.6 6.4 0.00 0.00 0.00 92 1009.3
20260509124758 11 103 0.0 6.4 0.00 0.00 0.00 92 1009.3
20260509124505 11 101 1.6 6.4 0.00 0.00 0.00 91 1009.4
20260509124400 11 101 4.8 6.4 0.00 0.00 0.00 91 1009.5
20260509124259 11 103 3.2 4.8 0.00 0.00 0.00 91 1009.5
20260509124200 11 103 3.2 4.8 0.00 0.00 0.00 91 1009.6
20260509124100 11 103 1.6 1.6 0.00 0.00 0.00 91 1009.7
20260509124004 11 103 0.0 1.6 0.00 0.00 0.00 91 1009.7
20260509123801 11 103 0.0 1.6 0.00 0.00 0.00 90 1009.7
20260509123702 11 103 0.0 1.6 0.00 0.00 0.00 90 1009.8
20260509123600 11 103 0.0 0.0 0.00 0.00 0.00 90 1009.8
20260509123505 11 103 0.0 0.0 0.00 0.00 0.00 90 1009.9
20260509123400 11 103 0.0 0.0 0.00 0.00 0.00 90 1009.9
20260509123300 11 103 0.0 0.0 0.00 0.00 0.00 90 1010.0
20260509123200 11 103 0.0 0.0 0.00 0.00 0.00 90 1010.0
20260509123100 11 103 0.0 0.0 0.00 0.00 0.00 89 1010.0
20260509123003 11 103 0.0 0.0 0.00 0.00 0.00 89 1010.0
20260509122900 11 103 0.0 0.0 0.00 0.00 0.00 89 1010.0
20260509122759 11 103 0.0 0.0 0.00 0.00 0.00 89 1010.0
20260509122700 11 103 0.0 0.0 0.00 0.00 0.00 90 1010.0
20260509122600 11 103 0.0 0.0 0.00 0.00 0.00 90 1010.0
20260509122504 11 103 0.0 0.0 0.00 0.00 0.00 90 1010.0
20260509122401 11 103 0.0 0.0 0.00 0.00 0.00 90 1010.1
20260509122300 11 103 0.0 0.0 0.00 0.00 0.00 89 1010.1
20260509122200 11 103 0.0 0.0 0.00 0.00 0.00 89 1010.1
20260509122100 11 103 0.0 0.0 0.00 0.00 0.00 89 1010.1
20260509122005 11 103 0.0 0.0 0.00 0.00 0.00 89 1010.1
20260509121759 11 103 0.0 0.0 0.00 0.00 0.00 90 1010.1
20260509121700 11 103 0.0 0.0 0.00 0.00 0.00 90 1010.1
20260509121600 11 103 0.0 0.0 0.00 0.00 0.00 90 1010.1
20260509121504 11 103 0.0 0.0 0.00 0.00 0.00 89 1010.1
20260509121400 11 103 0.0 0.0 0.00 0.00 0.00 89 1010.1
20260509121301 11 103 0.0 0.0 0.00 0.00 0.00 89 1010.1
20260509121200 11 103 0.0 0.0 0.00 0.00 0.00 90 1010.1
20260509121101 11 103 0.0 1.6 0.00 0.00 0.00 90 1010.0
20260509121005 11 103 0.0 1.6 0.00 0.00 0.00 89 1010.0
20260509120901 11 103 0.0 1.6 0.00 0.00 0.00 89 1010.0
20260509120759 11 103 0.0 1.6 0.00 0.00 0.00 89 1009.9
20260509120700 11 103 0.0 1.6 0.00 0.00 0.00 88 1009.9
20260509120600 11 103 0.0 3.2 0.00 0.00 0.00 88 1009.9
20260509120501 11 103 0.0 4.8 0.00 0.00 0.00 88 1009.8
20260509120359 11 103 0.0 4.8 0.00 0.00 0.00 88 1009.8
20260509120259 11 103 0.0 4.8 0.00 0.00 0.00 88 1009.8
20260509120159 11 103 0.0 4.8 0.00 0.00 0.00 89 1009.8
20260509120101 11 103 0.0 4.8 0.00 0.00 0.00 89 1009.7
20260509115700 11 103 3.2 4.8 0.00 0.00 0.00 89 1009.7
20260509115504 11 103 1.6 4.8 0.00 0.00 0.00 89 1009.6
20260509115359 11 103 0.0 4.8 0.00 0.00 0.00 89 1009.6
20260509115300 11 103 0.0 4.8 0.00 0.00 0.00 89 1009.6
20260509115159 11 103 1.6 4.8 0.00 0.00 0.00 90 1009.5
20260509115101 11 103 1.6 4.8 0.00 0.00 0.00 90 1009.5
20260509114859 11 103 0.0 3.2 0.00 0.00 0.00 89 1009.6
20260509114801 11 103 0.0 3.2 0.00 0.00 0.00 89 1009.6
20260509114659 11 103 1.6 3.2 0.00 0.00 0.00 89 1009.6
20260509114559 11 103 1.6 3.2 0.00 0.00 0.00 89 1009.5
20260509114400 11 103 0.0 3.2 0.00 0.00 0.00 89 1009.6
20260509114100 11 103 0.0 1.6 0.00 0.00 0.00 89 1009.6
20260509114001 11 103 0.0 1.6 0.00 0.00 0.00 89 1009.7
20260509113900 11 103 0.0 1.6 0.00 0.00 0.00 89 1009.7
20260509113759 11 103 0.0 3.2 0.00 0.00 0.00 89 1009.7
20260509113700 11 103 0.0 3.2 0.00 0.00 0.00 89 1009.7
20260509113601 11 103 0.0 3.2 0.00 0.00 0.00 88 1009.7
20260509113504 11 103 0.0 3.2 0.00 0.00 0.00 88 1009.7
20260509113300 11 103 0.0 3.2 0.00 0.00 0.00 88 1009.7
20260509113159 11 103 0.0 3.2 0.00 0.00 0.00 88 1009.7
20260509113059 11 103 1.6 3.2 0.00 0.00 0.00 88 1009.7
20260509113005 11 103 0.0 3.2 0.00 0.00 0.00 88 1009.5
20260509112900 11 103 1.6 3.2 0.00 0.00 0.00 88 1009.5
20260509112800 11 103 0.0 3.2 0.00 0.00 0.00 88 1009.7
20260509112658 11 103 0.0 3.2 0.00 0.00 0.00 88 1009.6
20260509112600 11 103 1.6 3.2 0.00 0.00 0.00 88 1009.5
20260509112505 11 103 0.0 3.2 0.00 0.00 0.00 88 1009.5
20260509112400 11 103 0.0 3.2 0.00 0.00 0.00 87 1009.5
20260509112300 11 103 1.6 6.4 0.00 0.00 0.00 87 1009.5
20260509112201 11 103 0.0 6.4 0.00 0.00 0.00 87 1009.6
20260509112100 11 103 0.0 6.4 0.00 0.00 0.00 87 1009.6
20260509112005 11 103 0.0 6.4 0.00 0.00 0.00 87 1009.5
20260509111859 11 103 0.0 6.4 0.00 0.00 0.00 87 1009.6
20260509111801 11 103 0.0 6.4 0.00 0.00 0.00 87 1009.6
20260509111659 11 103 0.0 6.4 0.00 0.00 0.00 87 1009.5
20260509111601 11 103 1.6 6.4 0.00 0.00 0.00 87 1009.5
20260509111504 11 103 0.0 6.4 0.00 0.00 0.00 87 1009.5
20260509111359 11 103 1.6 6.4 0.00 0.00 0.00 87 1009.5
20260509111300 11 103 3.2 6.4 0.00 0.00 0.00 87 1009.5
20260509111200 11 103 0.0 6.4 0.00 0.00 0.00 87 1009.5
20260509111004 11 103 0.0 6.4 0.00 0.00 0.00 87 1009.3
20260509110900 11 103 3.2 6.4 0.00 0.00 0.00 87 1009.3
20260509110759 11 102 3.2 6.4 0.00 0.00 0.00 87 1009.3
20260509110700 11 103 3.2 6.4 0.00 0.00 0.00 86 1009.4
20260509110600 11 104 0.0 6.4 0.00 0.00 0.00 86 1009.5
20260509110505 11 104 0.0 6.4 0.00 0.00 0.00 86 1009.5
20260509110159 10 104 4.8 6.4 0.00 0.00 0.00 87 1009.4
20260509110100 10 103 1.6 6.4 0.00 0.00 0.00 87 1009.2
20260509110006 10 103 4.8 6.4 0.00 0.00 0.00 87 1009.3
20260509105759 10 146 1.6 6.4 0.00 0.00 0.00 87 1009.2
20260509105700 10 146 0.0 6.4 0.00 0.00 0.00 87 1009.1
20260509105600 10 111 1.6 6.4 0.00 0.00 0.00 87 1009.1
20260509105504 10 111 1.6 6.4 0.00 0.00 0.00 87 1009.2
20260509105400 10 80 1.6 4.8 0.00 0.00 0.00 87 1009.2
20260509105101 10 77 0.0 0.0 0.00 0.00 0.00 88 1009.1
20260509105006 10 77 0.0 0.0 0.00 0.00 0.00 88 1009.1
20260509104759 10 77 0.0 0.0 0.00 0.00 0.00 88 1009.2
20260509104659 10 77 0.0 0.0 0.00 0.00 0.00 88 1009.2
20260509104500 10 78 0.0 0.0 0.00 0.00 0.00 88 1009.2
20260509104359 10 77 0.0 0.0 0.00 0.00 0.00 88 1009.1
20260509104300 10 76 0.0 0.0 0.00 0.00 0.00 88 1009.2
20260509104200 10 76 0.0 0.0 0.00 0.00 0.00 88 1009.2
20260509104004 10 76 0.0 0.0 0.00 0.00 0.00 89 1009.3
20260509103900 10 76 0.0 0.0 0.00 0.00 0.00 89 1009.2
20260509103759 10 76 0.0 0.0 0.00 0.00 0.00 89 1009.2
20260509103559 10 76 0.0 0.0 0.00 0.00 0.00 89 1009.3
20260509103505 10 76 0.0 0.0 0.00 0.00 0.00 89 1009.1
20260509103400 10 76 0.0 0.0 0.00 0.00 0.00 89 1009.1
20260509103259 10 76 0.0 0.0 0.00 0.00 0.00 89 1009.1
20260509103200 10 76 0.0 0.0 0.00 0.00 0.00 89 1009.2
20260509103101 10 76 0.0 0.0 0.00 0.00 0.00 90 1009.3
20260509103004 10 76 0.0 0.0 0.00 0.00 0.00 90 1009.3
20260509102859 10 76 0.0 0.0 0.00 0.00 0.00 90 1009.3
20260509102803 10 76 0.0 0.0 0.00 0.00 0.00 90 1009.3
20260509102700 10 76 0.0 0.0 0.00 0.00 0.00 90 1009.2
20260509102559 10 76 0.0 0.0 0.00 0.00 0.00 90 1009.2
20260509102504 10 76 0.0 0.0 0.00 0.00 0.00 90 1009.2
20260509102401 10 76 0.0 0.0 0.00 0.00 0.00 90 1009.2
20260509102259 10 76 0.0 0.0 0.00 0.00 0.00 90 1009.2
20260509102200 10 76 0.0 0.0 0.00 0.00 0.00 89 1009.2
20260509102059 10 76 0.0 0.0 0.00 0.00 0.00 89 1009.3
20260509101900 10 76 0.0 0.0 0.00 0.00 0.00 89 1009.3
20260509101800 10 76 0.0 0.0 0.00 0.00 0.00 89 1009.3
20260509101700 10 76 0.0 0.0 0.00 0.00 0.00 89 1009.3
20260509101600 10 76 0.0 0.0 0.00 0.00 0.00 89 1009.2
20260509101504 10 76 0.0 0.0 0.00 0.00 0.00 89 1009.2
20260509101400 10 76 0.0 0.0 0.00 0.00 0.00 88 1009.2
20260509101300 10 76 0.0 0.0 0.00 0.00 0.00 88 1009.2
20260509101200 10 76 0.0 0.0 0.00 0.00 0.00 88 1009.2
20260509101101 10 76 0.0 0.0 0.00 0.00 0.00 88 1009.2
20260509101004 10 76 0.0 0.0 0.00 0.00 0.00 88 1009.3
20260509100859 10 76 0.0 0.0 0.00 0.00 0.00 88 1009.3
20260509100801 10 76 0.0 0.0 0.00 0.00 0.00 89 1009.2
20260509100659 10 76 0.0 0.0 0.00 0.00 0.00 89 1009.2
20260509100600 10 76 0.0 0.0 0.00 0.00 0.00 89 1009.3
20260509100359 10 76 0.0 1.6 0.00 0.00 0.00 89 1009.2
20260509100259 10 76 0.0 1.6 0.00 0.00 0.00 89 1009.2
20260509100200 10 76 0.0 1.6 0.00 0.00 0.00 89 1009.2
20260509100100 10 76 0.0 1.6 0.00 0.00 0.00 90 1009.2
20260509100006 10 76 0.0 1.6 0.00 0.00 0.00 89 1009.1
20260509095900 10 76 0.0 1.6 0.00 0.00 0.00 90 1009.2
20260509095759 10 76 0.0 3.2 0.00 0.00 0.00 90 1009.1
20260509095659 10 76 0.0 3.2 0.00 0.00 0.00 90 1009.1
20260509095305 10 76 0.0 3.2 0.00 0.00 0.00 90 1009.2
20260509095159 10 76 0.0 3.2 0.00 0.00 0.00 90 1009.0
20260509095059 10 76 0.0 3.2 0.00 0.00 0.00 90 1009.0
20260509095001 10 76 0.0 3.2 0.00 0.00 0.00 90 1009.0
20260509094900 10 76 0.0 3.2 0.00 0.00 0.00 90 1009.0
20260509094759 10 76 0.0 1.6 0.00 0.00 0.00 90 1009.0
20260509094559 10 76 0.0 1.6 0.00 0.00 0.00 90 1009.0
20260509094506 10 76 0.0 1.6 0.00 0.00 0.00 90 1009.0
20260509094401 10 76 0.0 1.6 0.00 0.00 0.00 90 1009.0
20260509094301 10 76 0.0 3.2 0.00 0.00 0.00 90 1009.0
20260509094159 9 76 0.0 3.2 0.00 0.00 0.00 90 1009.0
20260509094101 9 76 0.0 3.2 0.00 0.00 0.00 90 1009.0
20260509094005 9 76 0.0 3.2 0.00 0.00 0.00 90 1009.1
20260509093901 9 76 0.0 3.2 0.00 0.00 0.00 90 1009.1
20260509093700 9 76 1.6 3.2 0.00 0.00 0.00 91 1009.2
20260509093505 9 76 1.6 3.2 0.00 0.00 0.00 91 1009.3
20260509093400 9 76 0.0 3.2 0.00 0.00 0.00 90 1009.3
20260509093258 9 76 1.6 1.6 0.00 0.00 0.00 90 1009.3
20260509093159 9 76 0.0 1.6 0.00 0.00 0.00 90 1009.3
20260509093101 9 76 0.0 3.2 0.00 0.00 0.00 91 1009.4
20260509093006 9 76 0.0 3.2 0.00 0.00 0.00 91 1009.4
20260509092859 9 76 0.0 3.2 0.00 0.00 0.00 91 1009.4
20260509092759 9 76 0.0 3.2 0.00 0.00 0.00 91 1009.4
20260509092701 9 76 1.6 3.2 0.00 0.00 0.00 91 1009.4
20260509092505 9 76 0.0 3.2 0.00 0.00 0.00 91 1009.4
20260509092400 9 76 0.0 3.2 0.00 0.00 0.00 91 1009.3
20260509092259 9 76 0.0 3.2 0.00 0.00 0.00 91 1009.4
20260509092200 9 76 1.6 3.2 0.00 0.00 0.00 92 1009.4
20260509092059 9 76 0.0 3.2 0.00 0.00 0.00 92 1009.4
20260509092005 9 76 0.0 0.0 0.00 0.00 0.00 92 1009.4
20260509091859 9 76 0.0 0.0 0.00 0.00 0.00 92 1009.4
20260509091801 9 76 0.0 1.6 0.00 0.00 0.00 92 1009.4
20260509091700 9 76 0.0 3.2 0.00 0.00 0.00 92 1009.3
20260509091559 9 76 0.0 3.2 0.00 0.00 0.00 92 1009.3
20260509091505 9 76 0.0 3.2 0.00 0.00 0.00 92 1009.3
20260509091400 9 76 0.0 3.2 0.00 0.00 0.00 92 1009.3
20260509091300 9 76 0.0 3.2 0.00 0.00 0.00 92 1009.2
20260509091005 9 76 0.0 3.2 0.00 0.00 0.00 92 1009.1
20260509090800 9 76 0.0 3.2 0.00 0.00 0.00 92 1009.1
20260509090701 9 53 0.0 3.2 0.00 0.00 0.00 92 1009.1
20260509090505 9 53 0.0 3.2 0.00 0.00 0.00 93 1009.1
20260509090401 9 53 0.0 3.2 0.00 0.00 0.00 93 1009.1
20260509090200 9 53 0.0 3.2 0.00 0.00 0.00 93 1009.2
20260509090100 9 53 0.0 3.2 0.00 0.00 0.00 93 1009.2
20260509090004 9 53 1.6 3.2 0.00 0.00 0.00 93 1009.2
20260509085900 8 53 1.6 3.2 0.00 0.00 0.00 93 1009.3
20260509085759 8 53 0.0 0.0 0.00 0.00 0.00 93 1009.2
20260509085659 9 53 0.0 0.0 0.00 0.00 0.00 93 1009.2
20260509085602 8 53 0.0 0.0 0.00 0.00 0.00 93 1009.2
20260509085400 8 53 0.0 0.0 0.00 0.00 0.00 93 1009.2
20260509085100 8 53 0.0 0.0 0.00 0.00 0.00 94 1009.2
20260509085005 8 53 0.0 0.0 0.00 0.00 0.00 94 1009.2
20260509084900 8 53 0.0 0.0 0.00 0.00 0.00 93 1009.2
20260509084800 8 53 0.0 0.0 0.00 0.00 0.00 93 1009.2
20260509084700 8 53 0.0 0.0 0.00 0.00 0.00 93 1009.2
20260509084359 8 53 0.0 0.0 0.00 0.00 0.00 94 1009.4
20260509084201 8 53 0.0 0.0 0.00 0.00 0.00 93 1009.4
20260509084100 8 53 0.0 0.0 0.00 0.00 0.00 94 1009.4
20260509084004 8 53 0.0 0.0 0.00 0.00 0.00 94 1009.4
20260509083859 8 53 0.0 0.0 0.00 0.00 0.00 94 1009.4
20260509083759 8 53 0.0 0.0 0.00 0.00 0.00 94 1009.4
20260509083700 8 53 0.0 0.0 0.00 0.00 0.00 94 1009.5
20260509083600 8 53 0.0 0.0 0.00 0.00 0.00 94 1009.4
20260509083401 8 53 0.0 0.0 0.00 0.00 0.00 94 1009.4
20260509083300 8 53 0.0 0.0 0.00 0.00 0.00 94 1009.4
20260509083100 9 53 0.0 0.0 0.00 0.00 0.00 94 1009.5
20260509083005 9 53 0.0 0.0 0.00 0.00 0.00 94 1009.5
20260509082901 8 53 0.0 0.0 0.00 0.00 0.00 94 1009.5
20260509082800 8 53 0.0 0.0 0.00 0.00 0.00 94 1009.5
20260509082659 8 53 0.0 0.0 0.00 0.00 0.00 94 1009.5
20260509082601 8 53 0.0 0.0 0.00 0.00 0.00 94 1009.5
20260509082504 8 53 0.0 0.0 0.00 0.00 0.00 93 1009.4
20260509082359 8 53 0.0 0.0 0.00 0.00 0.00 93 1009.4
20260509082259 8 53 0.0 0.0 0.00 0.00 0.00 93 1009.4
20260509082201 8 53 0.0 0.0 0.00 0.00 0.00 93 1009.4
20260509082059 8 53 0.0 0.0 0.00 0.00 0.00 93 1009.3
20260509082006 8 53 0.0 0.0 0.00 0.00 0.00 93 1009.3
20260509081800 8 53 0.0 0.0 0.00 0.00 0.00 93 1009.3
20260509081659 8 53 0.0 0.0 0.00 0.00 0.00 93 1009.3
20260509081600 8 53 0.0 0.0 0.00 0.00 0.00 93 1009.3
20260509081505 8 53 0.0 0.0 0.00 0.00 0.00 93 1009.3
20260509081359 8 53 0.0 0.0 0.00 0.00 0.00 93 1009.3
20260509081300 8 53 0.0 0.0 0.00 0.00 0.00 93 1009.3
20260509081200 8 53 0.0 0.0 0.00 0.00 0.00 93 1009.3
20260509081100 8 53 0.0 0.0 0.00 0.00 0.00 93 1009.3
20260509081005 8 53 0.0 0.0 0.00 0.00 0.00 93 1009.3
20260509080901 8 53 0.0 0.0 0.00 0.00 0.00 93 1009.4
20260509080800 8 53 0.0 0.0 0.00 0.00 0.00 93 1009.4
20260509080700 8 53 0.0 0.0 0.00 0.00 0.00 93 1009.4
20260509080559 8 53 0.0 0.0 0.00 0.00 0.00 93 1009.4
20260509080505 8 53 0.0 0.0 0.00 0.00 0.00 93 1009.4
20260509080401 8 53 0.0 0.0 0.00 0.00 0.00 93 1009.4
20260509080300 8 53 0.0 0.0 0.00 0.00 0.00 93 1009.4
20260509080201 8 53 0.0 0.0 0.00 0.00 0.00 93 1009.4
20260509080059 8 53 0.0 0.0 0.00 0.00 0.00 93 1009.4
20260509080005 8 53 0.0 0.0 0.00 0.00 0.00 93 1009.4
20260509075801 8 53 0.0 0.0 0.00 0.00 0.00 93 1009.4
20260509075700 8 53 0.0 1.6 0.00 0.00 0.00 93 1009.4
20260509075600 8 53 0.0 1.6 0.00 0.00 0.00 93 1009.4
20260509075505 8 53 0.0 1.6 0.00 0.00 0.00 93 1009.4
20260509075359 8 53 0.0 1.6 0.00 0.00 0.00 93 1009.4
20260509075200 8 53 0.0 1.6 0.00 0.00 0.00 93 1009.4
20260509075001 8 53 0.0 1.6 0.00 0.00 0.00 93 1009.4
20260509074900 8 53 0.0 1.6 0.00 0.00 0.00 93 1009.4
20260509074801 8 53 1.6 1.6 0.00 0.00 0.00 93 1009.5
20260509074659 8 53 0.0 0.0 0.00 0.00 0.00 93 1009.5
20260509074501 8 53 0.0 0.0 0.00 0.00 0.00 93 1009.5
20260509074359 8 53 0.0 0.0 0.00 0.00 0.00 93 1009.5
20260509074259 8 53 0.0 1.6 0.00 0.00 0.00 93 1009.5
20260509074200 8 53 0.0 1.6 0.00 0.00 0.00 93 1009.5
20260509074002 8 53 0.0 1.6 0.00 0.00 0.00 93 1009.6
20260509073900 8 53 0.0 1.6 0.00 0.00 0.00 93 1009.6
20260509073759 8 53 0.0 1.6 0.00 0.00 0.00 93 1009.6
20260509073659 8 53 0.0 1.6 0.00 0.00 0.00 93 1009.6
20260509073259 8 53 0.0 1.6 0.00 0.00 0.00 93 1009.6
20260509073200 8 53 1.6 1.6 0.00 0.00 0.00 93 1009.5
20260509072901 8 53 0.0 1.6 0.00 0.00 0.00 93 1009.6
20260509072801 8 53 0.0 1.6 0.00 0.00 0.00 92 1009.6
20260509072659 8 53 0.0 1.6 0.00 0.00 0.00 92 1009.6
20260509072600 8 53 0.0 1.6 0.00 0.00 0.00 92 1009.6
20260509072504 8 53 0.0 1.6 0.00 0.00 0.00 92 1009.6
20260509072259 8 53 0.0 1.6 0.00 0.00 0.00 92 1009.6
20260509072201 8 53 0.0 1.6 0.00 0.00 0.00 92 1009.6
20260509072059 8 53 0.0 1.6 0.00 0.00 0.00 92 1009.6
20260509072004 8 53 0.0 1.6 0.00 0.00 0.00 92 1009.6
20260509071900 8 53 0.0 1.6 0.00 0.00 0.00 92 1009.6
20260509071800 8 53 0.0 1.6 0.00 0.00 0.00 92 1009.7
20260509071659 8 53 0.0 1.6 0.00 0.00 0.00 92 1009.7
20260509071504 8 53 0.0 1.6 0.00 0.00 0.00 92 1009.8
20260509071359 8 53 0.0 0.0 0.00 0.00 0.00 92 1009.8
20260509071259 8 53 0.0 0.0 0.00 0.00 0.00 92 1009.8
20260509071200 8 53 0.0 0.0 0.00 0.00 0.00 92 1009.8
20260509071100 8 53 0.0 0.0 0.00 0.00 0.00 92 1009.8
20260509071004 8 53 0.0 0.0 0.00 0.00 0.00 91 1009.8
20260509070901 8 53 0.0 0.0 0.00 0.00 0.00 91 1009.8
20260509070659 8 53 0.0 0.0 0.00 0.00 0.00 91 1009.9
20260509070600 8 53 0.0 0.0 0.00 0.00 0.00 91 1009.9
20260509070504 8 53 0.0 0.0 0.00 0.00 0.00 91 1010.0
20260509070400 8 53 0.0 0.0 0.00 0.00 0.00 90 1009.9
20260509070301 8 53 0.0 0.0 0.00 0.00 0.00 90 1009.9
20260509070200 8 53 0.0 0.0 0.00 0.00 0.00 90 1009.9
20260509070100 8 53 0.0 0.0 0.00 0.00 0.00 90 1009.9
20260509070000 8 53 0.0 0.0 0.00 0.00 0.00 90 1009.9
20260509065901 8 53 0.0 0.0 0.00 0.00 0.00 90 1009.9
20260509065800 9 53 0.0 0.0 0.00 0.00 0.00 90 1009.9
20260509065701 9 53 0.0 0.0 0.00 0.00 0.00 90 1009.9
20260509065400 9 53 0.0 0.0 0.00 0.00 0.00 90 1009.9
20260509065300 9 53 0.0 0.0 0.00 0.00 0.00 90 1009.9
20260509065200 9 53 0.0 0.0 0.00 0.00 0.00 90 1009.9
20260509065100 9 53 0.0 0.0 0.00 0.00 0.00 90 1009.9
20260509065004 9 53 0.0 0.0 0.00 0.00 0.00 90 1009.9
20260509064800 9 53 0.0 0.0 0.00 0.00 0.00 89 1009.9
20260509064701 9 53 0.0 0.0 0.00 0.00 0.00 89 1009.9
20260509064600 9 53 0.0 0.0 0.00 0.00 0.00 89 1009.9
20260509064504 9 53 0.0 0.0 0.00 0.00 0.00 89 1009.9
20260509064400 9 53 0.0 0.0 0.00 0.00 0.00 89 1009.8
20260509064300 10 53 0.0 0.0 0.00 0.00 0.00 89 1009.9
20260509064102 10 53 0.0 1.6 0.00 0.00 0.00 89 1009.8
20260509064005 10 53 0.0 1.6 0.00 0.00 0.00 89 1009.9
20260509063901 10 53 0.0 1.6 0.00 0.00 0.00 88 1009.9
20260509063759 10 53 0.0 1.6 0.00 0.00 0.00 88 1009.9
20260509063700 10 53 0.0 1.6 0.00 0.00 0.00 88 1009.9
20260509063501 10 53 0.0 1.6 0.00 0.00 0.00 88 1009.9
20260509063301 10 53 0.0 1.6 0.00 0.00 0.00 88 1009.9
20260509063201 10 53 0.0 1.6 0.00 0.00 0.00 88 1009.9
20260509063005 10 53 0.0 0.0 0.00 0.00 0.00 88 1009.9
20260509062902 10 53 0.0 0.0 0.00 0.00 0.00 88 1009.9
20260509062800 10 53 0.0 0.0 0.00 0.00 0.00 88 1010.0
20260509062600 10 53 0.0 0.0 0.00 0.00 0.00 88 1010.0
20260509062505 10 53 0.0 0.0 0.00 0.00 0.00 88 1010.0
20260509062400 10 53 0.0 0.0 0.00 0.00 0.00 88 1010.0
20260509062300 10 53 0.0 0.0 0.00 0.00 0.00 87 1010.0
20260509062200 10 53 0.0 0.0 0.00 0.00 0.00 87 1010.0
20260509062058 10 53 0.0 0.0 0.00 0.00 0.00 87 1010.0
20260509062005 10 53 0.0 0.0 0.00 0.00 0.00 87 1010.1
20260509061900 10 53 0.0 0.0 0.00 0.00 0.00 87 1010.0
20260509061800 10 53 0.0 0.0 0.00 0.00 0.00 87 1010.0
20260509061700 10 53 0.0 0.0 0.00 0.00 0.00 87 1010.0
20260509061500 10 53 0.0 1.6 0.00 0.00 0.00 87 1010.1
20260509061400 10 53 0.0 1.6 0.00 0.00 0.00 86 1010.1
20260509061259 10 53 0.0 1.6 0.00 0.00 0.00 86 1010.1
20260509061159 10 53 0.0 1.6 0.00 0.00 0.00 86 1010.1
20260509061101 10 53 0.0 1.6 0.00 0.00 0.00 87 1010.1
20260509061004 10 53 0.0 1.6 0.00 0.00 0.00 87 1010.0
20260509060900 10 53 0.0 1.6 0.00 0.00 0.00 87 1010.0
20260509060800 10 53 0.0 1.6 0.00 0.00 0.00 87 1010.0
20260509060700 10 53 0.0 1.6 0.00 0.00 0.00 87 1010.0
20260509060505 10 53 1.6 1.6 0.00 0.00 0.00 86 1009.9
20260509060300 10 53 0.0 0.0 0.00 0.00 0.00 87 1010.0
20260509060200 10 53 0.0 0.0 0.00 0.00 0.00 87 1010.0
20260509060005 11 53 0.0 0.0 0.00 0.00 0.00 87 1010.0
20260509055901 11 53 0.0 0.0 0.00 0.00 0.00 87 1010.0
20260509055800 11 53 0.0 0.0 0.00 0.00 0.00 88 1010.0
20260509055659 11 53 0.0 0.0 0.00 0.00 0.00 88 1010.1
20260509055559 11 53 0.0 0.0 0.00 0.00 0.00 88 1010.1
20260509055500 11 53 0.0 0.0 0.00 0.00 0.00 88 1010.1
20260509055358 11 53 0.0 0.0 0.00 0.00 0.00 88 1010.1
20260509055259 11 53 0.0 0.0 0.00 0.00 0.00 88 1010.1
20260509055159 11 53 0.0 0.0 0.00 0.00 0.00 88 1010.1
20260509055059 11 53 0.0 0.0 0.00 0.00 0.00 87 1010.1
20260509054959 11 53 0.0 0.0 0.00 0.00 0.00 86 1010.0
20260509054858 11 53 0.0 0.0 0.00 0.00 0.00 86 1010.0
20260509054758 11 53 0.0 0.0 0.00 0.00 0.00 85 1010.0
20260509054658 11 53 0.0 0.0 0.00 0.00 0.00 85 1010.1
20260509054600 11 53 0.0 0.0 0.00 0.00 0.00 85 1010.1
20260509054359 11 53 0.0 0.0 0.00 0.00 0.00 85 1010.0
20260509054159 11 53 0.0 0.0 0.00 0.00 0.00 85 1010.0
20260509054005 11 53 0.0 0.0 0.00 0.00 0.00 85 1010.1
20260509053759 11 53 0.0 0.0 0.00 0.00 0.00 85 1010.1
20260509053559 11 53 0.0 0.0 0.00 0.00 0.00 85 1010.2
20260509053500 11 53 0.0 1.6 0.00 0.00 0.00 85 1010.1
20260509053359 11 53 0.0 3.2 0.00 0.00 0.00 85 1010.1
20260509053258 11 53 0.0 3.2 0.00 0.00 0.00 85 1010.2
20260509053158 11 53 0.0 3.2 0.00 0.00 0.00 86 1010.2
20260509053058 11 53 0.0 3.2 0.00 0.00 0.00 85 1010.2
20260509053000 11 53 0.0 3.2 0.00 0.00 0.00 84 1010.2
20260509052859 11 53 0.0 3.2 0.00 0.00 0.00 83 1010.2
20260509052759 11 53 0.0 3.2 0.00 0.00 0.00 83 1010.2
20260509052659 11 53 0.0 3.2 0.00 0.00 0.00 83 1010.2
20260509052559 11 53 0.0 3.2 0.00 0.00 0.00 83 1010.2
20260509052500 11 53 1.6 3.2 0.00 0.00 0.00 83 1010.2
20260509052359 11 53 0.0 3.2 0.00 0.00 0.00 83 1010.2
20260509052259 11 53 0.0 1.6 0.00 0.00 0.00 84 1010.2
20260509052159 11 53 0.0 1.6 0.00 0.00 0.00 84 1010.2
20260509052100 11 53 0.0 1.6 0.00 0.00 0.00 84 1010.2
20260509052001 11 53 0.0 1.6 0.00 0.00 0.00 84 1010.2
20260509051858 11 53 0.0 1.6 0.00 0.00 0.00 84 1010.3
20260509051659 11 53 0.0 1.6 0.00 0.00 0.00 84 1010.3
20260509051500 11 53 0.0 0.0 0.00 0.00 0.00 84 1010.3
20260509051358 11 53 0.0 0.0 0.00 0.00 0.00 84 1010.3
20260509051258 11 53 0.0 0.0 0.00 0.00 0.00 84 1010.3
20260509051158 11 53 0.0 0.0 0.00 0.00 0.00 84 1010.4
20260509051058 11 53 0.0 1.6 0.00 0.00 0.00 84 1010.4
20260509051000 11 53 0.0 1.6 0.00 0.00 0.00 84 1010.4
20260509050759 11 53 0.0 1.6 0.00 0.00 0.00 84 1010.4
20260509050659 11 53 0.0 1.6 0.00 0.00 0.00 84 1010.4
20260509050500 11 53 0.0 1.6 0.00 0.00 0.00 83 1010.4
20260509050358 11 53 0.0 1.6 0.00 0.00 0.00 83 1010.4
20260509050258 11 53 0.0 1.6 0.00 0.00 0.00 84 1010.5
20260509050159 11 53 0.0 1.6 0.00 0.00 0.00 84 1010.5
20260509050059 11 53 0.0 1.6 0.00 0.00 0.00 84 1010.5
20260509050004 11 53 0.0 1.6 0.00 0.00 0.00 85 1010.5
20260509045900 11 53 0.0 1.6 0.00 0.00 0.00 85 1010.4
20260509045759 11 53 0.0 1.6 0.00 0.00 0.00 85 1010.5
20260509045700 11 53 0.0 1.6 0.00 0.00 0.00 85 1010.5
20260509045600 11 53 0.0 1.6 0.00 0.00 0.00 85 1010.4
20260509045503 11 53 0.0 1.6 0.00 0.00 0.00 85 1010.5
20260509045400 11 53 0.0 3.2 0.00 0.00 0.00 85 1010.4
20260509045259 11 53 0.0 3.2 0.00 0.00 0.00 85 1010.5
20260509045159 11 53 1.6 3.2 0.00 0.00 0.00 85 1010.5
20260509045059 11 53 0.0 3.2 0.00 0.00 0.00 85 1010.5
20260509045001 11 53 0.0 3.2 0.00 0.00 0.00 85 1010.5
20260509044800 11 53 0.0 3.2 0.00 0.00 0.00 84 1010.5
20260509044701 11 53 0.0 3.2 0.00 0.00 0.00 84 1010.5
20260509044559 11 53 0.0 3.2 0.00 0.00 0.00 85 1010.5
20260509044504 11 53 1.6 3.2 0.00 0.00 0.00 85 1010.5
20260509044359 11 53 1.6 3.2 0.00 0.00 0.00 85 1010.5
20260509044301 11 53 1.6 3.2 0.00 0.00 0.00 85 1010.5
20260509044201 11 53 0.0 0.0 0.00 0.00 0.00 86 1010.5
20260509044059 11 53 0.0 0.0 0.00 0.00 0.00 86 1010.5
20260509043901 11 53 0.0 1.6 0.00 0.00 0.00 87 1010.5
20260509043800 11 53 0.0 1.6 0.00 0.00 0.00 87 1010.5
20260509043659 11 53 0.0 3.2 0.00 0.00 0.00 87 1010.4
20260509043559 11 53 0.0 3.2 0.00 0.00 0.00 87 1010.5
20260509043506 11 53 0.0 3.2 0.00 0.00 0.00 87 1010.4
20260509043401 11 53 0.0 3.2 0.00 0.00 0.00 86 1010.4
20260509043259 11 53 0.0 3.2 0.00 0.00 0.00 86 1010.4
20260509043200 11 53 0.0 3.2 0.00 0.00 0.00 86 1010.4
20260509043101 11 53 0.0 3.2 0.00 0.00 0.00 86 1010.4
20260509043005 11 53 0.0 3.2 0.00 0.00 0.00 85 1010.4
20260509042900 11 53 0.0 3.2 0.00 0.00 0.00 85 1010.4
20260509042700 11 53 0.0 1.6 0.00 0.00 0.00 84 1010.3
20260509042559 11 53 0.0 1.6 0.00 0.00 0.00 83 1010.2
20260509042501 11 53 0.0 1.6 0.00 0.00 0.00 83 1010.2
20260509042159 11 53 0.0 0.0 0.00 0.00 0.00 83 1010.2
20260509042100 11 53 0.0 0.0 0.00 0.00 0.00 82 1010.2
20260509042002 11 53 0.0 0.0 0.00 0.00 0.00 83 1010.3
20260509041901 11 53 0.0 0.0 0.00 0.00 0.00 83 1010.3
20260509041800 11 53 0.0 0.0 0.00 0.00 0.00 83 1010.3
20260509041600 11 53 0.0 0.0 0.00 0.00 0.00 84 1010.3
20260509041506 11 53 0.0 0.0 0.00 0.00 0.00 84 1010.3
20260509041100 11 53 0.0 3.2 0.00 0.00 0.00 84 1010.3
20260509040900 11 53 0.0 3.2 0.00 0.00 0.00 84 1010.3
20260509040800 11 53 0.0 3.2 0.00 0.00 0.00 84 1010.3
20260509040659 11 53 0.0 3.2 0.00 0.00 0.00 84 1010.3
20260509040600 11 53 0.0 3.2 0.00 0.00 0.00 84 1010.3
20260509040504 11 53 0.0 3.2 0.00 0.00 0.00 85 1010.3
20260509040401 11 53 1.6 1.6 0.00 0.00 0.00 85 1010.3
20260509040300 11 53 0.0 1.6 0.00 0.00 0.00 85 1010.4
20260509040202 11 53 0.0 6.4 0.00 0.00 0.00 85 1010.4
20260509040008 11 53 0.0 6.4 0.00 0.00 0.00 85 1010.4
20260509035802 11 53 0.0 6.4 0.00 0.00 0.00 85 1010.6
20260509035703 11 53 1.6 6.4 0.00 0.00 0.00 85 1010.6
20260509035602 11 53 1.6 6.4 0.00 0.00 0.00 85 1010.6
20260509035507 11 53 0.0 6.4 0.00 0.00 0.00 85 1010.6
20260509035403 11 53 0.0 6.4 0.00 0.00 0.00 85 1010.7
20260509035306 11 53 0.0 6.4 0.00 0.00 0.00 85 1010.7
20260509035203 11 5 0.0 3.2 0.00 0.00 0.00 85 1010.7
20260509035102 11 5 0.0 3.2 0.00 0.00 0.00 85 1010.7
20260509035005 11 5 1.6 3.2 0.00 0.00 0.00 85 1010.8
20260509034903 11 5 0.0 3.2 0.00 0.00 0.00 85 1010.8
20260509034803 11 5 1.6 3.2 0.00 0.00 0.00 85 1010.9
20260509034703 11 5 1.6 3.2 0.00 0.00 0.00 85 1010.9
20260509034602 11 5 1.6 3.2 0.00 0.00 0.00 85 1011.0
20260509034506 11 5 1.6 3.2 0.00 0.00 0.00 85 1010.9
20260509034202 11 5 1.6 1.6 0.00 0.00 0.00 86 1010.9
20260509034006 11 5 0.0 0.0 0.00 0.00 0.00 86 1010.9
20260509033801 11 5 0.0 0.0 0.00 0.00 0.00 86 1010.9
20260509033702 11 5 0.0 0.0 0.00 0.00 0.00 86 1010.8
20260509033602 11 5 0.0 0.0 0.00 0.00 0.00 86 1010.9
20260509033506 11 5 0.0 0.0 0.00 0.00 0.00 86 1010.9
20260509033403 11 5 0.0 1.6 0.00 0.00 0.00 86 1010.9
20260509033202 11 5 0.0 1.6 0.00 0.00 0.00 86 1010.8
20260509032903 11 5 0.0 1.6 0.00 0.00 0.00 86 1010.7
20260509032803 11 5 0.0 1.6 0.00 0.00 0.00 86 1010.6
20260509032506 11 5 0.0 1.6 0.00 0.00 0.00 86 1010.6
20260509032401 11 5 1.6 1.6 0.00 0.00 0.00 86 1010.6
20260509032203 11 5 0.0 1.6 0.00 0.00 0.00 86 1010.7
20260509032102 11 5 0.0 1.6 0.00 0.00 0.00 86 1010.7
20260509032005 11 5 1.6 1.6 0.00 0.00 0.00 86 1010.7
20260509031902 11 5 0.0 3.2 0.00 0.00 0.00 86 1010.7
20260509031800 11 5 0.0 3.2 0.00 0.00 0.00 86 1010.8
20260509031702 11 5 0.0 3.2 0.00 0.00 0.00 86 1010.8
20260509031603 11 5 0.0 3.2 0.00 0.00 0.00 86 1010.8
20260509031505 11 5 0.0 3.2 0.00 0.00 0.00 86 1010.8
20260509031401 11 5 0.0 3.2 0.00 0.00 0.00 86 1010.7
20260509031302 11 5 0.0 3.2 0.00 0.00 0.00 86 1010.8
20260509031202 11 5 0.0 3.2 0.00 0.00 0.00 86 1010.8
20260509031102 11 5 0.0 3.2 0.00 0.00 0.00 86 1010.8
20260509031007 11 5 1.6 3.2 0.00 0.00 0.00 86 1010.9
20260509030903 11 5 0.0 3.2 0.00 0.00 0.00 86 1011.0
20260509030803 11 5 0.0 3.2 0.00 0.00 0.00 86 1011.0
20260509030701 11 5 0.0 3.2 0.00 0.00 0.00 86 1011.0
20260509030505 11 5 0.0 3.2 0.00 0.00 0.00 86 1011.1
20260509030402 11 5 0.0 3.2 0.00 0.00 0.00 86 1011.0
20260509030302 11 5 0.0 3.2 0.00 0.00 0.00 86 1011.0
20260509030202 11 5 0.0 3.2 0.00 0.00 0.00 86 1011.0
20260509030101 11 5 0.0 3.2 0.00 0.00 0.00 85 1011.0
20260509030005 11 5 1.6 3.2 0.00 0.00 0.00 85 1011.1
20260509025801 11 5 0.0 0.0 0.00 0.00 0.00 85 1011.1
20260509025701 11 5 0.0 0.0 0.00 0.00 0.00 85 1011.1
20260509025504 11 5 0.0 0.0 0.00 0.00 0.00 85 1011.0
20260509025400 11 5 0.0 0.0 0.00 0.00 0.00 85 1011.0
20260509025301 11 5 0.0 0.0 0.00 0.00 0.00 85 1011.0
20260509025201 11 5 0.0 0.0 0.00 0.00 0.00 85 1011.0
20260509025005 11 5 0.0 0.0 0.00 0.00 0.00 85 1011.0
20260509024901 11 5 0.0 0.0 0.00 0.00 0.00 85 1010.9
20260509024801 11 5 0.0 0.0 0.00 0.00 0.00 85 1010.9
20260509024702 11 5 0.0 0.0 0.00 0.00 0.00 85 1010.9
20260509024600 11 5 0.0 0.0 0.00 0.00 0.00 85 1010.9
20260509024401 11 5 0.0 0.0 0.00 0.00 0.00 85 1010.8
20260509024300 11 5 0.0 0.0 0.00 0.00 0.00 85 1010.8
20260509024100 11 5 0.0 0.0 0.00 0.00 0.00 85 1010.7
20260509024005 11 5 0.0 0.0 0.00 0.00 0.00 85 1010.7
20260509023900 11 5 0.0 0.0 0.00 0.00 0.00 85 1010.7
20260509023801 11 5 0.0 0.0 0.00 0.00 0.00 85 1010.7
20260509023701 11 5 0.0 0.0 0.00 0.00 0.00 85 1010.6
20260509023601 11 5 0.0 0.0 0.00 0.00 0.00 85 1010.5
20260509023505 11 5 0.0 0.0 0.00 0.00 0.00 85 1010.5
20260509023401 11 5 0.0 0.0 0.00 0.00 0.00 84 1010.4
20260509023301 11 5 0.0 0.0 0.00 0.00 0.00 84 1010.4
20260509023200 11 5 0.0 0.0 0.00 0.00 0.00 84 1010.4
20260509023100 11 5 0.0 0.0 0.00 0.00 0.00 84 1010.3
20260509023005 11 5 0.0 0.0 0.00 0.00 0.00 84 1010.3
20260509022800 11 5 0.0 0.0 0.00 0.00 0.00 84 1010.3
20260509022505 11 5 0.0 0.0 0.00 0.00 0.00 84 1010.2
20260509022401 11 5 0.0 0.0 0.00 0.00 0.00 84 1010.2
20260509022301 11 5 0.0 0.0 0.00 0.00 0.00 83 1010.3
20260509022200 11 5 0.0 0.0 0.00 0.00 0.00 83 1010.3
20260509022101 11 5 0.0 0.0 0.00 0.00 0.00 83 1010.3
20260509021901 11 5 0.0 0.0 0.00 0.00 0.00 83 1010.4
20260509021801 11 5 0.0 0.0 0.00 0.00 0.00 83 1010.4
20260509021602 11 5 0.0 0.0 0.00 0.00 0.00 83 1010.4
20260509021506 11 5 0.0 0.0 0.00 0.00 0.00 83 1010.4
20260509021401 11 5 0.0 0.0 0.00 0.00 0.00 83 1010.4
20260509021302 11 5 0.0 0.0 0.00 0.00 0.00 83 1010.4
20260509021202 11 5 0.0 0.0 0.00 0.00 0.00 83 1010.3
20260509021101 11 5 0.0 0.0 0.00 0.00 0.00 82 1010.4
20260509021005 11 5 0.0 0.0 0.00 0.00 0.00 82 1010.3
20260509020900 11 5 0.0 0.0 0.00 0.00 0.00 82 1010.3
20260509020703 11 5 0.0 0.0 0.00 0.00 0.00 82 1010.4
20260509020601 11 5 0.0 0.0 0.00 0.00 0.00 82 1010.4
20260509020505 11 5 0.0 0.0 0.00 0.00 0.00 82 1010.3
20260509020400 11 5 0.0 0.0 0.00 0.00 0.00 82 1010.3
20260509020301 11 5 0.0 0.0 0.00 0.00 0.00 82 1010.3
20260509020202 12 5 0.0 0.0 0.00 0.00 0.00 82 1010.3
20260509020006 12 5 0.0 0.0 0.00 0.00 0.00 82 1010.3
20260509015902 12 5 0.0 0.0 0.00 0.00 0.00 82 1010.4
20260509015801 12 5 0.0 0.0 0.00 0.00 0.00 82 1010.4
20260509015702 12 5 0.0 0.0 0.00 0.00 0.00 82 1010.4
20260509015603 12 5 0.0 0.0 0.00 0.00 0.00 81 1010.4
20260509015505 12 5 0.0 0.0 0.00 0.00 0.00 81 1010.4
20260509015306 12 5 0.0 0.0 0.00 0.00 0.00 81 1010.5
20260509015202 12 5 0.0 0.0 0.00 0.00 0.00 81 1010.5
20260509015102 12 5 0.0 0.0 0.00 0.00 0.00 81 1010.5
20260509015007 12 5 0.0 0.0 0.00 0.00 0.00 81 1010.5
20260509014902 12 5 0.0 0.0 0.00 0.00 0.00 81 1010.5
20260509014802 12 5 0.0 0.0 0.00 0.00 0.00 80 1010.5
20260509014702 12 5 0.0 0.0 0.00 0.00 0.00 80 1010.5
20260509014602 12 5 0.0 0.0 0.00 0.00 0.00 81 1010.5
20260509014506 12 5 0.0 0.0 0.00 0.00 0.00 81 1010.5
20260509014301 12 5 0.0 0.0 0.00 0.00 0.00 81 1010.6
20260509014204 12 5 0.0 0.0 0.00 0.00 0.00 81 1010.5
20260509014103 12 5 0.0 0.0 0.00 0.00 0.00 81 1010.5
20260509014006 12 5 0.0 0.0 0.00 0.00 0.00 81 1010.5
20260509013902 12 5 0.0 0.0 0.00 0.00 0.00 81 1010.4
20260509013802 12 5 0.0 0.0 0.00 0.00 0.00 81 1010.4
20260509013702 12 5 0.0 0.0 0.00 0.00 0.00 81 1010.5
20260509013602 12 5 0.0 0.0 0.00 0.00 0.00 81 1010.5
20260509013506 12 5 0.0 0.0 0.00 0.00 0.00 81 1010.5
20260509013402 12 5 0.0 0.0 0.00 0.00 0.00 82 1010.5
20260509013202 12 5 0.0 0.0 0.00 0.00 0.00 81 1010.4
20260509013102 12 5 0.0 0.0 0.00 0.00 0.00 80 1010.5
20260509013006 12 5 0.0 0.0 0.00 0.00 0.00 79 1010.5
20260509012901 12 5 0.0 0.0 0.00 0.00 0.00 80 1010.5
20260509012801 12 5 0.0 0.0 0.00 0.00 0.00 80 1010.4
20260509012702 12 5 0.0 0.0 0.00 0.00 0.00 80 1010.4
20260509012603 12 5 0.0 0.0 0.00 0.00 0.00 81 1010.4
20260509012506 12 5 0.0 0.0 0.00 0.00 0.00 81 1010.4
20260509012402 12 5 0.0 0.0 0.00 0.00 0.00 81 1010.4
20260509012302 12 5 0.0 0.0 0.00 0.00 0.00 81 1010.4
20260509012202 12 5 0.0 0.0 0.00 0.00 0.00 80 1010.4
20260509012102 12 5 0.0 0.0 0.00 0.00 0.00 78 1010.3
20260509012005 12 5 0.0 0.0 0.00 0.00 0.00 78 1010.4
20260509011701 12 5 0.0 0.0 0.00 0.00 0.00 78 1010.3
20260509011602 12 5 0.0 0.0 0.00 0.00 0.00 78 1010.3
20260509011506 12 5 0.0 0.0 0.00 0.00 0.00 78 1010.3
20260509011301 12 5 0.0 0.0 0.00 0.00 0.00 78 1010.3
20260509011201 12 5 0.0 0.0 0.00 0.00 0.00 78 1010.3
20260509011102 12 5 0.0 0.0 0.00 0.00 0.00 78 1010.2
20260509011005 12 5 0.0 0.0 0.00 0.00 0.00 78 1010.2
20260509010902 12 5 0.0 0.0 0.00 0.00 0.00 78 1010.2
20260509010802 12 5 0.0 0.0 0.00 0.00 0.00 78 1010.2
20260509010702 12 5 0.0 0.0 0.00 0.00 0.00 78 1010.2
20260509010603 12 5 0.0 0.0 0.00 0.00 0.00 78 1010.2
20260509010505 12 5 0.0 0.0 0.00 0.00 0.00 78 1010.2
20260509010402 12 5 0.0 0.0 0.00 0.00 0.00 78 1010.2
20260509010203 12 5 0.0 0.0 0.00 0.00 0.00 77 1010.2
20260509010101 12 5 0.0 0.0 0.00 0.00 0.00 78 1010.2
20260509010006 12 5 0.0 0.0 0.00 0.00 0.00 77 1010.2
20260509005901 12 5 0.0 0.0 0.00 0.00 0.00 77 1010.2
20260509005801 12 5 0.0 0.0 0.00 0.00 0.00 77 1010.2
20260509005702 12 5 0.0 0.0 0.00 0.00 0.00 77 1010.2
20260509005600 12 5 0.0 0.0 0.00 0.00 0.00 76 1010.2
20260509005506 12 5 0.0 0.0 0.00 0.00 0.00 76 1010.2
20260509005402 12 5 0.0 0.0 0.00 0.00 0.00 76 1010.2
20260509005300 12 5 0.0 0.0 0.00 0.00 0.00 76 1010.2
20260509005202 12 5 0.0 0.0 0.00 0.00 0.00 76 1010.2
20260509005101 12 5 0.0 0.0 0.00 0.00 0.00 77 1010.2
20260509004901 12 5 0.0 0.0 0.00 0.00 0.00 77 1010.2
20260509004701 12 5 0.0 0.0 0.00 0.00 0.00 76 1010.2
20260509004602 12 5 0.0 0.0 0.00 0.00 0.00 76 1010.2
20260509004506 12 5 0.0 0.0 0.00 0.00 0.00 76 1010.2
20260509004401 12 5 0.0 0.0 0.00 0.00 0.00 76 1010.2
20260509004301 12 5 0.0 0.0 0.00 0.00 0.00 76 1010.2
20260509004200 12 5 0.0 0.0 0.00 0.00 0.00 75 1010.0
20260509004101 12 5 0.0 0.0 0.00 0.00 0.00 75 1010.1
20260509003902 12 5 0.0 0.0 0.00 0.00 0.00 75 1010.1
20260509003802 12 5 0.0 0.0 0.00 0.00 0.00 75 1010.1
20260509003700 12 5 0.0 0.0 0.00 0.00 0.00 75 1010.1
20260509003601 12 5 0.0 0.0 0.00 0.00 0.00 75 1010.1
20260509003504 13 5 0.0 0.0 0.00 0.00 0.00 74 1010.1
20260509003401 13 5 0.0 0.0 0.00 0.00 0.00 74 1010.1
20260509003301 13 5 0.0 0.0 0.00 0.00 0.00 74 1010.1
20260509003201 13 5 0.0 0.0 0.00 0.00 0.00 74 1010.1
20260509003005 13 5 0.0 0.0 0.00 0.00 0.00 74 1010.1
20260509002900 13 5 0.0 0.0 0.00 0.00 0.00 74 1010.1
20260509002800 13 5 0.0 0.0 0.00 0.00 0.00 74 1010.1
20260509002700 13 5 0.0 0.0 0.00 0.00 0.00 74 1010.2
20260509002505 13 5 0.0 0.0 0.00 0.00 0.00 73 1010.1
20260509002401 13 5 0.0 0.0 0.00 0.00 0.00 73 1010.1
20260509002306 13 5 0.0 0.0 0.00 0.00 0.00 73 1010.1
20260509002202 13 5 0.0 0.0 0.00 0.00 0.00 73 1010.1
20260509002101 13 5 0.0 1.6 0.00 0.00 0.00 73 1010.1
20260509001903 13 5 0.0 3.2 0.00 0.00 0.00 72 1010.1
20260509001702 13 5 0.0 3.2 0.00 0.00 0.00 71 1010.0
20260509001602 13 5 0.0 3.2 0.00 0.00 0.00 72 1009.9
20260509001505 13 5 0.0 3.2 0.00 0.00 0.00 73 1010.0
20260509001401 13 5 0.0 3.2 0.00 0.00 0.00 73 1010.0
20260509001301 13 5 0.0 3.2 0.00 0.00 0.00 73 1010.0
20260509001102 13 5 3.2 3.2 0.00 0.00 0.00 71 1010.0
20260509001006 13 5 0.0 3.2 0.00 0.00 0.00 71 1010.0
20260509000900 13 5 1.6 1.6 0.00 0.00 0.00 72 1010.0
20260509000800 13 5 0.0 3.2 0.00 0.00 0.00 71 1010.0
20260509000701 13 5 0.0 3.2 0.00 0.00 0.00 71 1010.0
20260509000505 13 5 0.0 3.2 0.00 0.00 0.00 72 1010.1
20260509000204 13 5 0.0 3.2 0.00 0.00 0.00 71 1010.0
20260509000100 13 5 0.0 3.2 0.00 0.00 0.00 70 1010.0
20260508235903 13 5 0.0 3.2 0.00 0.00 0.00 70 1009.9
20260508235803 13 5 1.6 3.2 0.00 0.00 0.00 70 1009.9
20260508235702 13 5 1.6 3.2 0.00 0.00 0.00 70 1009.9
20260508235406 13 5 0.0 3.2 0.00 0.00 0.00 70 1009.9
20260508235306 13 5 0.0 3.2 0.00 0.00 0.00 69 1009.9
20260508235101 14 5 1.6 1.6 0.00 0.00 0.00 68 1009.8
20260508235006 14 5 0.0 1.6 0.00 0.00 0.00 68 1009.8
20260508234901 14 5 0.0 1.6 0.00 0.00 0.00 68 1009.8
20260508234801 14 5 0.0 1.6 0.00 0.00 0.00 68 1009.8
20260508234703 14 5 0.0 1.6 0.00 0.00 0.00 67 1009.7
20260508234600 14 5 0.0 1.6 0.00 0.00 0.00 67 1009.7
20260508234505 14 5 0.0 1.6 0.00 0.00 0.00 67 1009.7
20260508234403 14 5 0.0 3.2 0.00 0.00 0.00 66 1009.8
20260508234301 15 5 0.0 3.2 0.00 0.00 0.00 66 1009.8
20260508234201 15 5 0.0 3.2 0.00 0.00 0.00 66 1009.7
20260508234102 15 5 0.0 3.2 0.00 0.00 0.00 66 1009.7
20260508234005 15 5 1.6 3.2 0.00 0.00 0.00 66 1009.7
20260508233901 15 5 0.0 3.2 0.00 0.00 0.00 65 1009.6
20260508233802 15 5 1.6 3.2 0.00 0.00 0.00 65 1009.7
20260508233701 15 5 0.0 3.2 0.00 0.00 0.00 65 1009.6
20260508233602 15 5 0.0 3.2 0.00 0.00 0.00 66 1009.7
20260508233505 15 5 0.0 3.2 0.00 0.00 0.00 65 1009.6
20260508233301 15 5 0.0 3.2 0.00 0.00 0.00 65 1009.5
20260508233202 15 5 0.0 3.2 0.00 0.00 0.00 65 1009.5
20260508233103 15 5 0.0 3.2 0.00 0.00 0.00 64 1009.5
20260508232901 15 5 0.0 3.2 0.00 0.00 0.00 64 1009.5
20260508232802 15 5 1.6 3.2 0.00 0.00 0.00 64 1009.5
20260508232703 15 5 0.0 8.0 0.00 0.00 0.00 64 1009.5
20260508232601 15 5 0.0 8.0 0.00 0.00 0.00 63 1009.5
20260508232505 15 5 0.0 8.0 0.00 0.00 0.00 62 1009.4
20260508232401 15 5 0.0 8.0 0.00 0.00 0.00 62 1009.5
20260508232306 15 5 0.0 8.0 0.00 0.00 0.00 63 1009.4
20260508232204 15 5 0.0 8.0 0.00 0.00 0.00 62 1009.4
20260508232006 15 5 0.0 8.0 0.00 0.00 0.00 61 1009.4
20260508231802 15 5 3.2 8.0 0.00 0.00 0.00 61 1009.4
20260508231702 15 12 8.0 8.0 0.00 0.00 0.00 61 1009.4
20260508231602 15 26 4.8 8.0 0.00 0.00 0.00 61 1009.4
20260508231506 15 5 3.2 8.0 0.00 0.00 0.00 61 1009.4
20260508231402 15 321 3.2 6.4 0.00 0.00 0.00 61 1009.4
20260508231303 15 321 1.6 6.4 0.00 0.00 0.00 61 1009.4
20260508231200 15 321 1.6 6.4 0.00 0.00 0.00 61 1009.4
20260508231005 15 321 3.2 6.4 0.00 0.00 0.00 61 1009.4
20260508230902 15 253 3.2 4.8 0.00 0.00 0.00 63 1009.4
20260508230803 15 253 1.6 3.2 0.00 0.00 0.00 62 1009.4
20260508230702 15 253 1.6 3.2 0.00 0.00 0.00 61 1009.4
20260508230505 15 253 0.0 3.2 0.00 0.00 0.00 61 1009.4
20260508230401 15 253 3.2 3.2 0.00 0.00 0.00 61 1009.4
20260508230303 15 253 3.2 3.2 0.00 0.00 0.00 62 1009.4
20260508230202 15 253 0.0 3.2 0.00 0.00 0.00 62 1009.4
20260508225901 15 253 0.0 3.2 0.00 0.00 0.00 61 1009.5
20260508225800 15 253 1.6 3.2 0.00 0.00 0.00 62 1009.4
20260508225701 15 253 1.6 3.2 0.00 0.00 0.00 63 1009.4
20260508225602 15 253 3.2 3.2 0.00 0.00 0.00 61 1009.4
20260508225506 15 253 3.2 3.2 0.00 0.00 0.00 61 1009.5
20260508225401 15 253 1.6 3.2 0.00 0.00 0.00 61 1009.4
20260508225301 15 253 1.6 3.2 0.00 0.00 0.00 62 1009.5
20260508225201 15 253 1.6 3.2 0.00 0.00 0.00 62 1009.5
20260508225101 15 253 0.0 0.0 0.00 0.00 0.00 63 1009.5
20260508225004 15 253 0.0 0.0 0.00 0.00 0.00 62 1009.5
20260508224901 15 253 0.0 0.0 0.00 0.00 0.00 62 1009.5
20260508224800 15 253 0.0 0.0 0.00 0.00 0.00 61 1009.5
20260508224702 15 253 0.0 0.0 0.00 0.00 0.00 61 1009.4